Wetterstion Hohenwalde 74m ?ber NN
Wetterdaten: Samstag / Sonntag, 03.05.2026
Datum Zeit Temp. A. 5cm TDach Feuchte A. Luftdruck Regen Wind Richtung Richtung Sonnenschein Solar Taupunkt Windb?en
02.05.2026 23:00 12,0 ?C 10,2 ?C 13,7 ?C 65 % 1016,0 hPa 0,0 l/m? 1,3 km/h (1 Bft) S-SW 203 ? 0 min 0 W/m? 5,6 ?C 3,2 km/h (1 Bft)
02.05.2026 23:03 12,0 ?C 10,3 ?C 13,4 ?C 66 % 1016,0 hPa 0,0 l/m? 1,9 km/h (1 Bft) S-SW 203 ? 0 min 0 W/m? 5,8 ?C 3,2 km/h (1 Bft)
02.05.2026 23:06 11,8 ?C 10,2 ?C 13,2 ?C 66 % 1016,0 hPa 0,0 l/m? 0,9 km/h (0 Bft) S-SW 203 ? 0 min 0 W/m? 5,7 ?C 3,2 km/h (1 Bft)
02.05.2026 23:09 11,7 ?C 10,1 ?C 13,1 ?C 66 % 1016,0 hPa 0,0 l/m? 0,3 km/h (0 Bft) S-SW 203 ? 0 min 0 W/m? 5,6 ?C 1,6 km/h (1 Bft)
02.05.2026 23:12 11,6 ?C 10,1 ?C 13,1 ?C 66 % 1016,0 hPa 0,0 l/m? 0,6 km/h (0 Bft) S-SW 203 ? 0 min 0 W/m? 5,5 ?C 1,6 km/h (1 Bft)
02.05.2026 23:15 11,5 ?C 10,0 ?C 12,9 ?C 65 % 1015,9 hPa 0,0 l/m? 1,2 km/h (1 Bft) S-SW 203 ? 0 min 0 W/m? 5,2 ?C 1,6 km/h (1 Bft)
02.05.2026 23:18 11,4 ?C 9,9 ?C 13,0 ?C 66 % 1015,9 hPa 0,0 l/m? 0,4 km/h (0 Bft) S-SW 203 ? 0 min 0 W/m? 5,3 ?C 1,6 km/h (1 Bft)
02.05.2026 23:21 11,4 ?C 9,9 ?C 13,1 ?C 66 % 1015,9 hPa 0,0 l/m? 0,0 km/h (0 Bft) N 0 ? 0 min 0 W/m? 5,3 ?C 0,0 km/h (0 Bft)
02.05.2026 23:24 11,4 ?C 9,9 ?C 13,1 ?C 65 % 1015,8 hPa 0,0 l/m? 0,0 km/h (0 Bft) N 0 ? 0 min 0 W/m? 5,1 ?C 0,0 km/h (0 Bft)
02.05.2026 23:27 11,4 ?C 9,8 ?C 13,1 ?C 65 % 1015,9 hPa 0,0 l/m? 0,0 km/h (0 Bft) N 0 ? 0 min 0 W/m? 5,1 ?C 0,0 km/h (0 Bft)
02.05.2026 23:30 11,4 ?C 9,9 ?C 12,9 ?C 65 % 1015,8 hPa 0,0 l/m? 0,0 km/h (0 Bft) N 0 ? 0 min 0 W/m? 5,1 ?C 0,0 km/h (0 Bft)
02.05.2026 23:33 11,3 ?C 9,8 ?C 12,7 ?C 66 % 1015,8 hPa 0,0 l/m? 0,0 km/h (0 Bft) N 0 ? 0 min 0 W/m? 5,2 ?C 0,0 km/h (0 Bft)
02.05.2026 23:36 11,3 ?C 9,8 ?C 12,6 ?C 66 % 1015,8 hPa 0,0 l/m? 0,0 km/h (0 Bft) N 0 ? 0 min 0 W/m? 5,2 ?C 0,0 km/h (0 Bft)
02.05.2026 23:39 11,2 ?C 9,7 ?C 12,7 ?C 67 % 1015,8 hPa 0,0 l/m? 0,0 km/h (0 Bft) N 0 ? 0 min 0 W/m? 5,3 ?C 0,0 km/h (0 Bft)
02.05.2026 23:42 11,1 ?C 9,7 ?C 12,7 ?C 67 % 1015,8 hPa 0,0 l/m? 0,0 km/h (0 Bft) N 0 ? 0 min 0 W/m? 5,2 ?C 0,0 km/h (0 Bft)
02.05.2026 23:45 11,0 ?C 9,6 ?C 12,8 ?C 67 % 1015,8 hPa 0,0 l/m? 0,0 km/h (0 Bft) N 0 ? 0 min 0 W/m? 5,1 ?C 0,0 km/h (0 Bft)
02.05.2026 23:48 11,0 ?C 9,6 ?C 13,3 ?C 67 % 1015,7 hPa 0,0 l/m? 0,0 km/h (0 Bft) N 0 ? 0 min 0 W/m? 5,1 ?C 0,0 km/h (0 Bft)
02.05.2026 23:51 11,0 ?C 9,6 ?C 13,2 ?C 67 % 1015,7 hPa 0,0 l/m? 0,0 km/h (0 Bft) N 0 ? 0 min 0 W/m? 5,1 ?C 0,0 km/h (0 Bft)
02.05.2026 23:54 11,0 ?C 9,5 ?C 13,1 ?C 67 % 1015,7 hPa 0,0 l/m? 0,0 km/h (0 Bft) N 0 ? 0 min 0 W/m? 5,1 ?C 0,0 km/h (0 Bft)
02.05.2026 23:57 10,9 ?C 9,5 ?C 13,2 ?C 67 % 1015,7 hPa 0,0 l/m? 0,0 km/h (0 Bft) N 0 ? 0 min 0 W/m? 5,0 ?C 0,0 km/h (0 Bft)
03.05.2026 00:00 10,9 ?C 9,5 ?C 13,1 ?C 68 % 1015,6 hPa 0,0 l/m? 0,0 km/h (0 Bft) N 0 ? 0 min 0 W/m? 5,2 ?C 0,0 km/h (0 Bft)
03.05.2026 00:03 10,8 ?C 9,5 ?C 13,2 ?C 68 % 1015,6 hPa 0,0 l/m? 0,0 km/h (0 Bft) N 0 ? 0 min 0 W/m? 5,1 ?C 0,0 km/h (0 Bft)
03.05.2026 00:06 10,7 ?C 9,4 ?C 13,1 ?C 68 % 1015,6 hPa 0,0 l/m? 0,0 km/h (0 Bft) N 0 ? 0 min 0 W/m? 5,0 ?C 0,0 km/h (0 Bft)
03.05.2026 00:09 10,7 ?C 9,4 ?C 13,0 ?C 69 % 1015,6 hPa 0,0 l/m? 0,0 km/h (0 Bft) N 0 ? 0 min 0 W/m? 5,2 ?C 0,0 km/h (0 Bft)
03.05.2026 00:12 10,6 ?C 9,2 ?C 12,7 ?C 69 % 1015,6 hPa 0,0 l/m? 0,7 km/h (0 Bft) S-SW 203 ? 0 min 0 W/m? 5,2 ?C 3,2 km/h (1 Bft)
03.05.2026 00:15 10,4 ?C 9,2 ?C 12,2 ?C 69 % 1015,7 hPa 0,0 l/m? 3,8 km/h (1 Bft) O 96 ? 0 min 0 W/m? 5,0 ?C 6,4 km/h (2 Bft)
03.05.2026 00:18 10,3 ?C 9,2 ?C 11,6 ?C 70 % 1015,6 hPa 0,0 l/m? 0,9 km/h (0 Bft) O 94 ? 0 min 0 W/m? 5,1 ?C 3,2 km/h (1 Bft)
03.05.2026 00:21 10,3 ?C 9,2 ?C 11,5 ?C 70 % 1015,6 hPa 0,0 l/m? 2,3 km/h (1 Bft) O 94 ? 0 min 0 W/m? 5,1 ?C 4,8 km/h (1 Bft)
03.05.2026 00:24 10,3 ?C 9,2 ?C 11,6 ?C 70 % 1015,6 hPa 0,0 l/m? 1,5 km/h (1 Bft) O 94 ? 0 min 0 W/m? 5,1 ?C 3,2 km/h (1 Bft)
03.05.2026 00:27 10,2 ?C 9,2 ?C 11,6 ?C 70 % 1015,6 hPa 0,0 l/m? 0,4 km/h (0 Bft) O 94 ? 0 min 0 W/m? 5,0 ?C 3,2 km/h (1 Bft)
03.05.2026 00:30 10,1 ?C 9,1 ?C 11,2 ?C 70 % 1015,6 hPa 0,0 l/m? 0,0 km/h (0 Bft) N 0 ? 0 min 0 W/m? 4,9 ?C 0,0 km/h (0 Bft)
03.05.2026 00:33 10,1 ?C 9,0 ?C 11,6 ?C 70 % 1015,6 hPa 0,0 l/m? 0,6 km/h (0 Bft) O 94 ? 0 min 0 W/m? 4,9 ?C 3,2 km/h (1 Bft)
03.05.2026 00:36 10,0 ?C 9,0 ?C 12,3 ?C 70 % 1015,5 hPa 0,0 l/m? 1,6 km/h (1 Bft) O 94 ? 0 min 0 W/m? 4,8 ?C 3,2 km/h (1 Bft)
03.05.2026 00:39 10,0 ?C 9,0 ?C 12,3 ?C 70 % 1015,5 hPa 0,0 l/m? 1,1 km/h (1 Bft) O 94 ? 0 min 0 W/m? 4,8 ?C 3,2 km/h (1 Bft)
03.05.2026 00:42 9,9 ?C 9,0 ?C 12,3 ?C 71 % 1015,5 hPa 0,0 l/m? 1,2 km/h (1 Bft) O 94 ? 0 min 0 W/m? 4,9 ?C 3,2 km/h (1 Bft)
03.05.2026 00:45 9,8 ?C 8,9 ?C 12,4 ?C 71 % 1015,5 hPa 0,0 l/m? 1,2 km/h (1 Bft) O 94 ? 0 min 0 W/m? 4,8 ?C 3,2 km/h (1 Bft)
03.05.2026 00:48 9,8 ?C 8,9 ?C 12,7 ?C 71 % 1015,5 hPa 0,0 l/m? 2,2 km/h (1 Bft) O 94 ? 0 min 0 W/m? 4,8 ?C 3,2 km/h (1 Bft)
03.05.2026 00:51 9,7 ?C 8,8 ?C 12,9 ?C 71 % 1015,5 hPa 0,0 l/m? 2,3 km/h (1 Bft) O 94 ? 0 min 0 W/m? 4,7 ?C 3,2 km/h (1 Bft)
03.05.2026 00:54 9,7 ?C 8,7 ?C 12,9 ?C 72 % 1015,4 hPa 0,0 l/m? 2,3 km/h (1 Bft) O 94 ? 0 min 0 W/m? 4,9 ?C 3,2 km/h (1 Bft)
03.05.2026 00:57 9,7 ?C 8,7 ?C 12,6 ?C 72 % 1015,4 hPa 0,0 l/m? 1,4 km/h (1 Bft) O 94 ? 0 min 0 W/m? 4,9 ?C 3,2 km/h (1 Bft)
03.05.2026 01:00 9,6 ?C 8,7 ?C 12,6 ?C 72 % 1015,4 hPa 0,0 l/m? 1,9 km/h (1 Bft) O 94 ? 0 min 0 W/m? 4,8 ?C 3,2 km/h (1 Bft)
03.05.2026 01:03 9,5 ?C 8,6 ?C 12,5 ?C 72 % 1015,4 hPa 0,0 l/m? 2,6 km/h (1 Bft) O 94 ? 0 min 0 W/m? 4,7 ?C 4,8 km/h (1 Bft)
03.05.2026 01:06 9,5 ?C 8,6 ?C 12,6 ?C 72 % 1015,3 hPa 0,0 l/m? 3,1 km/h (1 Bft) O 94 ? 0 min 0 W/m? 4,7 ?C 4,8 km/h (1 Bft)
03.05.2026 01:09 9,5 ?C 8,6 ?C 12,3 ?C 72 % 1015,3 hPa 0,0 l/m? 3,4 km/h (1 Bft) O 94 ? 0 min 0 W/m? 4,7 ?C 4,8 km/h (1 Bft)
03.05.2026 01:12 9,5 ?C 8,6 ?C 12,5 ?C 72 % 1015,3 hPa 0,0 l/m? 2,9 km/h (1 Bft) O 94 ? 0 min 0 W/m? 4,7 ?C 4,8 km/h (1 Bft)
03.05.2026 01:15 9,5 ?C 8,7 ?C 12,3 ?C 72 % 1015,3 hPa 0,0 l/m? 2,5 km/h (1 Bft) O 94 ? 0 min 0 W/m? 4,7 ?C 3,2 km/h (1 Bft)
03.05.2026 01:18 9,6 ?C 8,6 ?C 12,4 ?C 73 % 1015,3 hPa 0,0 l/m? 2,5 km/h (1 Bft) O 94 ? 0 min 0 W/m? 5,0 ?C 3,2 km/h (1 Bft)
03.05.2026 01:21 9,6 ?C 8,6 ?C 12,2 ?C 72 % 1015,3 hPa 0,0 l/m? 1,9 km/h (1 Bft) O 94 ? 0 min 0 W/m? 4,8 ?C 3,2 km/h (1 Bft)
03.05.2026 01:24 9,5 ?C 8,6 ?C 12,1 ?C 73 % 1015,2 hPa 0,0 l/m? 1,8 km/h (1 Bft) O 94 ? 0 min 0 W/m? 4,9 ?C 3,2 km/h (1 Bft)
03.05.2026 01:27 9,5 ?C 8,6 ?C 11,9 ?C 73 % 1015,2 hPa 0,0 l/m? 1,1 km/h (1 Bft) O 94 ? 0 min 0 W/m? 4,9 ?C 3,2 km/h (1 Bft)
03.05.2026 01:30 9,4 ?C 8,6 ?C 11,8 ?C 73 % 1015,2 hPa 0,0 l/m? 0,6 km/h (0 Bft) O 94 ? 0 min 0 W/m? 4,8 ?C 1,6 km/h (1 Bft)
03.05.2026 01:33 9,4 ?C 8,6 ?C 11,7 ?C 73 % 1015,2 hPa 0,0 l/m? 1,1 km/h (1 Bft) O 94 ? 0 min 0 W/m? 4,8 ?C 3,2 km/h (1 Bft)
03.05.2026 01:36 9,4 ?C 8,5 ?C 11,7 ?C 73 % 1015,1 hPa 0,0 l/m? 0,5 km/h (0 Bft) O 94 ? 0 min 0 W/m? 4,8 ?C 3,2 km/h (1 Bft)
03.05.2026 01:39 9,3 ?C 8,5 ?C 11,6 ?C 72 % 1015,1 hPa 0,0 l/m? 0,0 km/h (0 Bft) N 0 ? 0 min 0 W/m? 4,5 ?C 0,0 km/h (0 Bft)
03.05.2026 01:42 9,3 ?C 8,5 ?C 11,6 ?C 72 % 1015,1 hPa 0,0 l/m? 0,4 km/h (0 Bft) O 94 ? 0 min 0 W/m? 4,5 ?C 1,6 km/h (1 Bft)
03.05.2026 01:45 9,3 ?C 8,4 ?C 11,7 ?C 73 % 1015,1 hPa 0,0 l/m? 0,1 km/h (0 Bft) O 94 ? 0 min 0 W/m? 4,7 ?C 1,6 km/h (1 Bft)
03.05.2026 01:48 9,3 ?C 8,4 ?C 11,9 ?C 73 % 1015,0 hPa 0,0 l/m? 1,3 km/h (1 Bft) O 94 ? 0 min 0 W/m? 4,7 ?C 3,2 km/h (1 Bft)
03.05.2026 01:51 9,3 ?C 8,4 ?C 12,0 ?C 73 % 1015,0 hPa 0,0 l/m? 2,0 km/h (1 Bft) O 94 ? 0 min 0 W/m? 4,7 ?C 3,2 km/h (1 Bft)
03.05.2026 01:54 9,3 ?C 8,4 ?C 11,9 ?C 73 % 1015,0 hPa 0,0 l/m? 1,7 km/h (1 Bft) O 94 ? 0 min 0 W/m? 4,7 ?C 3,2 km/h (1 Bft)
03.05.2026 01:57 9,4 ?C 8,4 ?C 11,9 ?C 73 % 1014,9 hPa 0,0 l/m? 2,2 km/h (1 Bft) O 94 ? 0 min 0 W/m? 4,8 ?C 3,2 km/h (1 Bft)
03.05.2026 02:00 9,3 ?C 8,4 ?C 11,8 ?C 73 % 1014,9 hPa 0,0 l/m? 2,3 km/h (1 Bft) O 94 ? 0 min 0 W/m? 4,7 ?C 3,2 km/h (1 Bft)
03.05.2026 02:03 9,3 ?C 8,4 ?C 11,6 ?C 73 % 1014,9 hPa 0,0 l/m? 2,0 km/h (1 Bft) O 94 ? 0 min 0 W/m? 4,7 ?C 4,8 km/h (1 Bft)
03.05.2026 02:06 9,2 ?C 8,4 ?C 11,5 ?C 73 % 1014,9 hPa 0,0 l/m? 0,1 km/h (0 Bft) O 94 ? 0 min 0 W/m? 4,6 ?C 1,6 km/h (1 Bft)
03.05.2026 02:09 9,2 ?C 8,4 ?C 11,5 ?C 74 % 1014,8 hPa 0,0 l/m? 1,1 km/h (1 Bft) O 94 ? 0 min 0 W/m? 4,8 ?C 3,2 km/h (1 Bft)
03.05.2026 02:12 9,1 ?C 8,4 ?C 11,3 ?C 73 % 1014,9 hPa 0,0 l/m? 0,5 km/h (0 Bft) O 94 ? 0 min 0 W/m? 4,5 ?C 1,6 km/h (1 Bft)
03.05.2026 02:15 9,1 ?C 8,4 ?C 11,3 ?C 73 % 1014,9 hPa 0,0 l/m? 0,6 km/h (0 Bft) O 94 ? 0 min 0 W/m? 4,5 ?C 3,2 km/h (1 Bft)
03.05.2026 02:18 9,1 ?C 8,4 ?C 11,4 ?C 73 % 1014,8 hPa 0,0 l/m? 0,5 km/h (0 Bft) O 94 ? 0 min 0 W/m? 4,5 ?C 1,6 km/h (1 Bft)
03.05.2026 02:21 9,1 ?C 8,3 ?C 11,3 ?C 73 % 1014,8 hPa 0,0 l/m? 0,1 km/h (0 Bft) O 94 ? 0 min 0 W/m? 4,5 ?C 1,6 km/h (1 Bft)
03.05.2026 02:24 9,1 ?C 8,3 ?C 11,1 ?C 73 % 1014,8 hPa 0,0 l/m? 0,0 km/h (0 Bft) N 0 ? 0 min 0 W/m? 4,5 ?C 0,0 km/h (0 Bft)
03.05.2026 02:27 9,1 ?C 8,3 ?C 11,0 ?C 73 % 1014,8 hPa 0,0 l/m? 0,0 km/h (0 Bft) N 0 ? 0 min 0 W/m? 4,5 ?C 0,0 km/h (0 Bft)
03.05.2026 02:30 9,1 ?C 8,3 ?C 11,0 ?C 73 % 1014,8 hPa 0,0 l/m? 0,1 km/h (0 Bft) O 94 ? 0 min 0 W/m? 4,5 ?C 1,6 km/h (1 Bft)
03.05.2026 02:33 9,1 ?C 8,3 ?C 11,1 ?C 73 % 1014,7 hPa 0,0 l/m? 0,0 km/h (0 Bft) N 0 ? 0 min 0 W/m? 4,5 ?C 0,0 km/h (0 Bft)
03.05.2026 02:36 9,1 ?C 8,3 ?C 11,5 ?C 73 % 1014,7 hPa 0,0 l/m? 1,6 km/h (1 Bft) O 94 ? 0 min 0 W/m? 4,5 ?C 3,2 km/h (1 Bft)
03.05.2026 02:39 9,0 ?C 8,3 ?C 11,4 ?C 73 % 1014,7 hPa 0,0 l/m? 0,7 km/h (0 Bft) O 94 ? 0 min 0 W/m? 4,4 ?C 1,6 km/h (1 Bft)
03.05.2026 02:42 9,0 ?C 8,2 ?C 11,2 ?C 73 % 1014,7 hPa 0,0 l/m? 0,0 km/h (0 Bft) N 0 ? 0 min 0 W/m? 4,4 ?C 0,0 km/h (0 Bft)
03.05.2026 02:45 9,0 ?C 8,2 ?C 11,0 ?C 73 % 1014,7 hPa 0,0 l/m? 0,0 km/h (0 Bft) N 0 ? 0 min 0 W/m? 4,4 ?C 0,0 km/h (0 Bft)
03.05.2026 02:48 8,9 ?C 8,2 ?C 10,9 ?C 73 % 1014,6 hPa 0,0 l/m? 0,0 km/h (0 Bft) N 0 ? 0 min 0 W/m? 4,3 ?C 0,0 km/h (0 Bft)
03.05.2026 02:51 8,9 ?C 8,2 ?C 10,6 ?C 73 % 1014,6 hPa 0,0 l/m? 0,0 km/h (0 Bft) N 0 ? 0 min 0 W/m? 4,3 ?C 0,0 km/h (0 Bft)
03.05.2026 02:54 8,9 ?C 8,2 ?C 10,4 ?C 73 % 1014,6 hPa 0,0 l/m? 0,7 km/h (0 Bft) O 94 ? 0 min 0 W/m? 4,3 ?C 3,2 km/h (1 Bft)
03.05.2026 02:57 9,0 ?C 8,3 ?C 10,4 ?C 73 % 1014,6 hPa 0,0 l/m? 1,1 km/h (1 Bft) O 94 ? 0 min 0 W/m? 4,4 ?C 3,2 km/h (1 Bft)
03.05.2026 03:00 9,0 ?C 8,2 ?C 10,5 ?C 73 % 1014,6 hPa 0,0 l/m? 0,4 km/h (0 Bft) O 94 ? 0 min 0 W/m? 4,4 ?C 1,6 km/h (1 Bft)
03.05.2026 03:03 9,0 ?C 8,2 ?C 10,4 ?C 73 % 1014,6 hPa 0,0 l/m? 0,0 km/h (0 Bft) N 0 ? 0 min 0 W/m? 4,4 ?C 0,0 km/h (0 Bft)
03.05.2026 03:06 9,0 ?C 8,2 ?C 10,7 ?C 73 % 1014,6 hPa 0,0 l/m? 0,0 km/h (0 Bft) N 0 ? 0 min 0 W/m? 4,4 ?C 0,0 km/h (0 Bft)
03.05.2026 03:09 8,9 ?C 8,2 ?C 10,8 ?C 73 % 1014,5 hPa 0,0 l/m? 0,0 km/h (0 Bft) N 0 ? 0 min 0 W/m? 4,3 ?C 0,0 km/h (0 Bft)
03.05.2026 03:12 8,9 ?C 8,1 ?C 11,0 ?C 73 % 1014,5 hPa 0,0 l/m? 0,3 km/h (0 Bft) O 94 ? 0 min 0 W/m? 4,3 ?C 3,2 km/h (1 Bft)
03.05.2026 03:15 8,9 ?C 8,1 ?C 11,2 ?C 73 % 1014,5 hPa 0,0 l/m? 0,4 km/h (0 Bft) O 94 ? 0 min 0 W/m? 4,3 ?C 3,2 km/h (1 Bft)
03.05.2026 03:18 8,8 ?C 8,2 ?C 11,2 ?C 74 % 1014,5 hPa 0,0 l/m? 1,6 km/h (1 Bft) O 94 ? 0 min 0 W/m? 4,4 ?C 3,2 km/h (1 Bft)
03.05.2026 03:21 8,7 ?C 8,0 ?C 11,3 ?C 74 % 1014,5 hPa 0,0 l/m? 1,7 km/h (1 Bft) O 94 ? 0 min 0 W/m? 4,3 ?C 3,2 km/h (1 Bft)
03.05.2026 03:24 8,7 ?C 8,0 ?C 11,2 ?C 74 % 1014,5 hPa 0,0 l/m? 2,2 km/h (1 Bft) O 94 ? 0 min 0 W/m? 4,3 ?C 3,2 km/h (1 Bft)
03.05.2026 03:27 8,7 ?C 8,0 ?C 11,2 ?C 74 % 1014,5 hPa 0,0 l/m? 1,9 km/h (1 Bft) O 94 ? 0 min 0 W/m? 4,3 ?C 4,8 km/h (1 Bft)
03.05.2026 03:30 8,7 ?C 7,9 ?C 10,8 ?C 74 % 1014,5 hPa 0,0 l/m? 0,0 km/h (0 Bft) N 0 ? 0 min 0 W/m? 4,3 ?C 0,0 km/h (0 Bft)
03.05.2026 03:33 8,6 ?C 7,9 ?C 10,3 ?C 74 % 1014,4 hPa 0,0 l/m? 0,1 km/h (0 Bft) O 94 ? 0 min 0 W/m? 4,2 ?C 1,6 km/h (1 Bft)
03.05.2026 03:36 8,6 ?C 7,9 ?C 10,2 ?C 73 % 1014,4 hPa 0,0 l/m? 0,0 km/h (0 Bft) N 0 ? 0 min 0 W/m? 4,0 ?C 0,0 km/h (0 Bft)
03.05.2026 03:39 8,6 ?C 7,9 ?C 10,1 ?C 74 % 1014,4 hPa 0,0 l/m? 0,0 km/h (0 Bft) N 0 ? 0 min 0 W/m? 4,2 ?C 0,0 km/h (0 Bft)
03.05.2026 03:42 8,7 ?C 7,9 ?C 10,2 ?C 74 % 1014,4 hPa 0,0 l/m? 0,0 km/h (0 Bft) N 0 ? 0 min 0 W/m? 4,3 ?C 0,0 km/h (0 Bft)
03.05.2026 03:45 8,6 ?C 7,9 ?C 10,0 ?C 74 % 1014,4 hPa 0,0 l/m? 0,0 km/h (0 Bft) N 0 ? 0 min 0 W/m? 4,2 ?C 0,0 km/h (0 Bft)
03.05.2026 03:48 8,5 ?C 7,9 ?C 9,9 ?C 73 % 1014,5 hPa 0,0 l/m? 0,0 km/h (0 Bft) N 0 ? 0 min 0 W/m? 3,9 ?C 0,0 km/h (0 Bft)
03.05.2026 03:51 8,5 ?C 7,8 ?C 9,8 ?C 73 % 1014,4 hPa 0,0 l/m? 0,2 km/h (0 Bft) O 94 ? 0 min 0 W/m? 3,9 ?C 1,6 km/h (1 Bft)
03.05.2026 03:54 8,6 ?C 7,8 ?C 9,9 ?C 73 % 1014,4 hPa 0,0 l/m? 0,0 km/h (0 Bft) N 0 ? 0 min 0 W/m? 4,0 ?C 0,0 km/h (0 Bft)
03.05.2026 03:57 8,7 ?C 7,8 ?C 9,9 ?C 73 % 1014,4 hPa 0,0 l/m? 0,0 km/h (0 Bft) N 0 ? 0 min 0 W/m? 4,1 ?C 0,0 km/h (0 Bft)
03.05.2026 04:00 8,7 ?C 7,8 ?C 10,3 ?C 73 % 1014,4 hPa 0,0 l/m? 0,6 km/h (0 Bft) O 94 ? 0 min 0 W/m? 4,1 ?C 3,2 km/h (1 Bft)
03.05.2026 04:03 8,6 ?C 7,8 ?C 10,4 ?C 73 % 1014,3 hPa 0,0 l/m? 0,1 km/h (0 Bft) O 94 ? 0 min 0 W/m? 4,0 ?C 1,6 km/h (1 Bft)
03.05.2026 04:06 8,6 ?C 7,9 ?C 10,2 ?C 73 % 1014,3 hPa 0,0 l/m? 0,3 km/h (0 Bft) O 94 ? 0 min 0 W/m? 4,0 ?C 1,6 km/h (1 Bft)
03.05.2026 04:09 8,5 ?C 7,8 ?C 10,1 ?C 74 % 1014,3 hPa 0,0 l/m? 0,1 km/h (0 Bft) O 94 ? 0 min 0 W/m? 4,1 ?C 1,6 km/h (1 Bft)
03.05.2026 04:12 8,4 ?C 7,8 ?C 10,2 ?C 74 % 1014,2 hPa 0,0 l/m? 0,5 km/h (0 Bft) O 94 ? 0 min 0 W/m? 4,0 ?C 1,6 km/h (1 Bft)
03.05.2026 04:15 8,4 ?C 7,8 ?C 10,2 ?C 74 % 1014,3 hPa 0,0 l/m? 0,1 km/h (0 Bft) O 94 ? 0 min 0 W/m? 4,0 ?C 1,6 km/h (1 Bft)
03.05.2026 04:18 8,4 ?C 7,7 ?C 10,1 ?C 74 % 1014,2 hPa 0,0 l/m? 0,0 km/h (0 Bft) N 0 ? 0 min 0 W/m? 4,0 ?C 0,0 km/h (0 Bft)
03.05.2026 04:21 8,4 ?C 7,7 ?C 10,1 ?C 74 % 1014,2 hPa 0,0 l/m? 0,0 km/h (0 Bft) N 0 ? 0 min 0 W/m? 4,0 ?C 0,0 km/h (0 Bft)
03.05.2026 04:24 8,4 ?C 7,6 ?C 10,1 ?C 74 % 1014,2 hPa 0,0 l/m? 0,2 km/h (0 Bft) O 94 ? 0 min 0 W/m? 4,0 ?C 1,6 km/h (1 Bft)
03.05.2026 04:27 8,4 ?C 7,7 ?C 10,2 ?C 74 % 1014,2 hPa 0,0 l/m? 0,1 km/h (0 Bft) O 94 ? 0 min 0 W/m? 4,0 ?C 1,6 km/h (1 Bft)
03.05.2026 04:30 8,4 ?C 7,8 ?C 10,2 ?C 74 % 1014,1 hPa 0,0 l/m? 0,3 km/h (0 Bft) O 94 ? 0 min 0 W/m? 4,0 ?C 1,6 km/h (1 Bft)
03.05.2026 04:33 8,3 ?C 7,7 ?C 10,1 ?C 74 % 1014,1 hPa 0,0 l/m? 0,0 km/h (0 Bft) N 0 ? 0 min 0 W/m? 3,9 ?C 0,0 km/h (0 Bft)
03.05.2026 04:36 8,3 ?C 7,8 ?C 10,3 ?C 75 % 1014,1 hPa 0,0 l/m? 0,4 km/h (0 Bft) O 94 ? 0 min 0 W/m? 4,1 ?C 3,2 km/h (1 Bft)
03.05.2026 04:39 8,3 ?C 7,8 ?C 10,2 ?C 75 % 1014,0 hPa 0,0 l/m? 0,0 km/h (0 Bft) N 0 ? 0 min 0 W/m? 4,1 ?C 0,0 km/h (0 Bft)
03.05.2026 04:42 8,2 ?C 7,7 ?C 9,9 ?C 75 % 1014,1 hPa 0,0 l/m? 0,0 km/h (0 Bft) N 0 ? 0 min 0 W/m? 4,0 ?C 0,0 km/h (0 Bft)
03.05.2026 04:45 8,3 ?C 7,7 ?C 9,7 ?C 74 % 1014,1 hPa 0,0 l/m? 0,0 km/h (0 Bft) N 0 ? 0 min 0 W/m? 3,9 ?C 0,0 km/h (0 Bft)
03.05.2026 04:48 8,3 ?C 7,7 ?C 9,9 ?C 75 % 1014,0 hPa 0,0 l/m? 0,0 km/h (0 Bft) N 0 ? 0 min 0 W/m? 4,1 ?C 0,0 km/h (0 Bft)
03.05.2026 04:51 8,3 ?C 7,7 ?C 9,9 ?C 75 % 1014,0 hPa 0,0 l/m? 0,0 km/h (0 Bft) N 0 ? 0 min 0 W/m? 4,1 ?C 0,0 km/h (0 Bft)
03.05.2026 04:54 8,2 ?C 7,7 ?C 9,9 ?C 74 % 1013,9 hPa 0,0 l/m? 0,0 km/h (0 Bft) N 0 ? 0 min 0 W/m? 3,8 ?C 0,0 km/h (0 Bft)
03.05.2026 04:57 8,2 ?C 7,7 ?C 9,9 ?C 74 % 1013,9 hPa 0,0 l/m? 0,0 km/h (0 Bft) N 0 ? 0 min 0 W/m? 3,8 ?C 0,0 km/h (0 Bft)
03.05.2026 05:00 8,2 ?C 7,7 ?C 9,9 ?C 75 % 1013,9 hPa 0,0 l/m? 0,0 km/h (0 Bft) N 0 ? 0 min 0 W/m? 4,0 ?C 0,0 km/h (0 Bft)
03.05.2026 05:03 8,1 ?C 7,6 ?C 9,8 ?C 75 % 1013,9 hPa 0,0 l/m? 0,0 km/h (0 Bft) N 0 ? 0 min 0 W/m? 3,9 ?C 0,0 km/h (0 Bft)
03.05.2026 05:06 8,1 ?C 7,6 ?C 9,9 ?C 75 % 1013,9 hPa 0,0 l/m? 0,0 km/h (0 Bft) N 0 ? 0 min 0 W/m? 3,9 ?C 0,0 km/h (0 Bft)
03.05.2026 05:09 8,2 ?C 7,7 ?C 9,7 ?C 75 % 1013,9 hPa 0,0 l/m? 0,0 km/h (0 Bft) N 0 ? 0 min 0 W/m? 4,0 ?C 0,0 km/h (0 Bft)
03.05.2026 05:12 8,3 ?C 7,7 ?C 9,6 ?C 74 % 1013,9 hPa 0,0 l/m? 0,1 km/h (0 Bft) O 94 ? 0 min 1 W/m? 3,9 ?C 1,6 km/h (1 Bft)
03.05.2026 05:15 8,4 ?C 7,6 ?C 9,9 ?C 74 % 1013,8 hPa 0,0 l/m? 0,0 km/h (0 Bft) N 0 ? 0 min 2 W/m? 4,0 ?C 0,0 km/h (0 Bft)
03.05.2026 05:18 8,4 ?C 7,6 ?C 10,1 ?C 74 % 1013,9 hPa 0,0 l/m? 0,4 km/h (0 Bft) O 94 ? 0 min 2 W/m? 4,0 ?C 3,2 km/h (1 Bft)
03.05.2026 05:21 8,3 ?C 7,7 ?C 9,9 ?C 74 % 1013,9 hPa 0,0 l/m? 0,0 km/h (0 Bft) N 0 ? 0 min 2 W/m? 3,9 ?C 0,0 km/h (0 Bft)
03.05.2026 05:24 8,2 ?C 7,7 ?C 9,9 ?C 74 % 1013,9 hPa 0,0 l/m? 0,0 km/h (0 Bft) N 0 ? 0 min 2 W/m? 3,8 ?C 0,0 km/h (0 Bft)
03.05.2026 05:27 8,1 ?C 7,6 ?C 9,9 ?C 75 % 1013,9 hPa 0,0 l/m? 0,0 km/h (0 Bft) N 0 ? 0 min 2 W/m? 3,9 ?C 0,0 km/h (0 Bft)
03.05.2026 05:30 8,0 ?C 7,5 ?C 10,0 ?C 75 % 1013,9 hPa 0,0 l/m? 0,0 km/h (0 Bft) N 0 ? 0 min 2 W/m? 3,8 ?C 0,0 km/h (0 Bft)
03.05.2026 05:33 8,0 ?C 7,6 ?C 10,1 ?C 75 % 1013,9 hPa 0,0 l/m? 0,0 km/h (0 Bft) N 0 ? 0 min 4 W/m? 3,8 ?C 0,0 km/h (0 Bft)
03.05.2026 05:36 8,0 ?C 7,6 ?C 10,2 ?C 76 % 1013,9 hPa 0,0 l/m? 0,0 km/h (0 Bft) N 0 ? 0 min 5 W/m? 4,0 ?C 0,0 km/h (0 Bft)
03.05.2026 05:39 8,0 ?C 7,5 ?C 10,1 ?C 75 % 1014,0 hPa 0,0 l/m? 0,0 km/h (0 Bft) N 0 ? 0 min 6 W/m? 3,8 ?C 0,0 km/h (0 Bft)
03.05.2026 05:42 8,0 ?C 7,6 ?C 10,1 ?C 75 % 1013,9 hPa 0,0 l/m? 0,0 km/h (0 Bft) N 0 ? 0 min 7 W/m? 3,8 ?C 0,0 km/h (0 Bft)
03.05.2026 05:45 8,0 ?C 7,6 ?C 10,4 ?C 75 % 1013,9 hPa 0,0 l/m? 0,5 km/h (0 Bft) O 94 ? 0 min 9 W/m? 3,8 ?C 3,2 km/h (1 Bft)
03.05.2026 05:48 8,0 ?C 7,6 ?C 10,5 ?C 76 % 1013,9 hPa 0,0 l/m? 0,9 km/h (0 Bft) O 94 ? 0 min 11 W/m? 4,0 ?C 3,2 km/h (1 Bft)
03.05.2026 05:51 8,1 ?C 7,6 ?C 10,6 ?C 76 % 1013,8 hPa 0,0 l/m? 0,2 km/h (0 Bft) O 94 ? 0 min 13 W/m? 4,1 ?C 1,6 km/h (1 Bft)
03.05.2026 05:54 8,1 ?C 7,7 ?C 10,6 ?C 75 % 1013,9 hPa 0,0 l/m? 0,1 km/h (0 Bft) O 94 ? 0 min 15 W/m? 3,9 ?C 1,6 km/h (1 Bft)
03.05.2026 05:57 8,2 ?C 7,8 ?C 10,7 ?C 76 % 1013,9 hPa 0,0 l/m? 0,0 km/h (0 Bft) N 0 ? 0 min 18 W/m? 4,2 ?C 0,0 km/h (0 Bft)
03.05.2026 06:00 8,2 ?C 7,8 ?C 10,9 ?C 76 % 1013,8 hPa 0,0 l/m? 0,0 km/h (0 Bft) N 0 ? 0 min 19 W/m? 4,2 ?C 0,0 km/h (0 Bft)
03.05.2026 06:03 8,1 ?C 7,8 ?C 11,0 ?C 76 % 1013,8 hPa 0,0 l/m? 0,0 km/h (0 Bft) N 0 ? 0 min 21 W/m? 4,1 ?C 0,0 km/h (0 Bft)
03.05.2026 06:06 8,1 ?C 7,8 ?C 11,0 ?C 76 % 1013,8 hPa 0,0 l/m? 0,0 km/h (0 Bft) N 0 ? 0 min 22 W/m? 4,1 ?C 0,0 km/h (0 Bft)
03.05.2026 06:09 8,2 ?C 7,8 ?C 11,0 ?C 76 % 1013,8 hPa 0,0 l/m? 0,0 km/h (0 Bft) N 0 ? 0 min 25 W/m? 4,2 ?C 0,0 km/h (0 Bft)
03.05.2026 06:12 8,2 ?C 7,8 ?C 11,2 ?C 76 % 1013,8 hPa 0,0 l/m? 0,1 km/h (0 Bft) S-SW 206 ? 0 min 26 W/m? 4,2 ?C 1,6 km/h (1 Bft)
03.05.2026 06:15 8,2 ?C 7,8 ?C 11,3 ?C 76 % 1013,8 hPa 0,0 l/m? 0,0 km/h (0 Bft) N 0 ? 0 min 27 W/m? 4,2 ?C 0,0 km/h (0 Bft)
03.05.2026 06:18 8,2 ?C 7,9 ?C 11,4 ?C 76 % 1013,8 hPa 0,0 l/m? 0,0 km/h (0 Bft) N 0 ? 0 min 29 W/m? 4,2 ?C 0,0 km/h (0 Bft)
03.05.2026 06:21 8,2 ?C 7,9 ?C 11,8 ?C 77 % 1013,7 hPa 0,0 l/m? 0,0 km/h (0 Bft) N 0 ? 0 min 33 W/m? 4,4 ?C 0,0 km/h (0 Bft)
03.05.2026 06:24 8,3 ?C 8,0 ?C 12,3 ?C 76 % 1013,8 hPa 0,0 l/m? 0,0 km/h (0 Bft) N 0 ? 0 min 37 W/m? 4,3 ?C 0,0 km/h (0 Bft)
03.05.2026 06:27 8,5 ?C 8,1 ?C 12,5 ?C 75 % 1013,9 hPa 0,0 l/m? 0,4 km/h (0 Bft) S-SW 207 ? 0 min 35 W/m? 4,3 ?C 1,6 km/h (1 Bft)
03.05.2026 06:30 8,6 ?C 8,1 ?C 12,6 ?C 75 % 1013,8 hPa 0,0 l/m? 0,7 km/h (0 Bft) S-SW 207 ? 0 min 36 W/m? 4,4 ?C 3,2 km/h (1 Bft)
03.05.2026 06:33 8,7 ?C 8,1 ?C 12,8 ?C 75 % 1013,9 hPa 0,0 l/m? 1,6 km/h (1 Bft) S-SW 207 ? 0 min 40 W/m? 4,5 ?C 3,2 km/h (1 Bft)
03.05.2026 06:36 8,8 ?C 8,1 ?C 13,3 ?C 74 % 1013,9 hPa 0,0 l/m? 1,0 km/h (0 Bft) S-SW 207 ? 0 min 43 W/m? 4,4 ?C 3,2 km/h (1 Bft)
03.05.2026 06:39 8,8 ?C 8,2 ?C 14,5 ?C 75 % 1013,9 hPa 0,0 l/m? 0,0 km/h (0 Bft) N 0 ? 0 min 51 W/m? 4,6 ?C 0,0 km/h (0 Bft)
03.05.2026 06:42 8,7 ?C 8,2 ?C 15,5 ?C 76 % 1013,9 hPa 0,0 l/m? 0,0 km/h (0 Bft) N 0 ? 0 min 54 W/m? 4,7 ?C 0,0 km/h (0 Bft)
03.05.2026 06:45 8,8 ?C 8,3 ?C 15,4 ?C 76 % 1013,9 hPa 0,0 l/m? 0,0 km/h (0 Bft) N 0 ? 0 min 51 W/m? 4,8 ?C 0,0 km/h (0 Bft)
03.05.2026 06:48 8,8 ?C 8,3 ?C 15,7 ?C 76 % 1013,9 hPa 0,0 l/m? 0,5 km/h (0 Bft) S-SW 207 ? 0 min 67 W/m? 4,8 ?C 1,6 km/h (1 Bft)
03.05.2026 06:51 8,9 ?C 8,4 ?C 16,6 ?C 76 % 1013,9 hPa 0,0 l/m? 0,4 km/h (0 Bft) S-SW 207 ? 0 min 78 W/m? 4,9 ?C 3,2 km/h (1 Bft)
03.05.2026 06:54 9,0 ?C 8,4 ?C 17,5 ?C 76 % 1013,9 hPa 0,0 l/m? 0,0 km/h (0 Bft) N 0 ? 0 min 77 W/m? 5,0 ?C 0,0 km/h (0 Bft)
03.05.2026 06:57 9,2 ?C 8,5 ?C 17,7 ?C 75 % 1013,9 hPa 0,0 l/m? 0,5 km/h (0 Bft) S-SW 207 ? 0 min 76 W/m? 5,0 ?C 1,6 km/h (1 Bft)
03.05.2026 07:00 9,4 ?C 8,5 ?C 17,4 ?C 75 % 1013,8 hPa 0,0 l/m? 1,0 km/h (0 Bft) S-SW 203 ? 0 min 87 W/m? 5,2 ?C 3,2 km/h (1 Bft)
03.05.2026 07:03 9,5 ?C 8,7 ?C 17,5 ?C 75 % 1013,9 hPa 0,0 l/m? 2,6 km/h (1 Bft) S 182 ? 0 min 97 W/m? 5,3 ?C 6,4 km/h (2 Bft)
03.05.2026 07:06 9,7 ?C 8,8 ?C 18,4 ?C 74 % 1013,8 hPa 0,0 l/m? 1,4 km/h (1 Bft) S 181 ? 0 min 103 W/m? 5,3 ?C 4,8 km/h (1 Bft)
03.05.2026 07:09 10,1 ?C 8,9 ?C 18,1 ?C 73 % 1013,8 hPa 0,0 l/m? 1,5 km/h (1 Bft) S 170 ? 0 min 88 W/m? 5,5 ?C 3,2 km/h (1 Bft)
03.05.2026 07:12 10,3 ?C 9,0 ?C 18,5 ?C 72 % 1013,9 hPa 0,0 l/m? 1,3 km/h (1 Bft) S-SO 166 ? 0 min 119 W/m? 5,5 ?C 3,2 km/h (1 Bft)
03.05.2026 07:15 10,5 ?C 9,1 ?C 20,6 ?C 72 % 1013,8 hPa 0,0 l/m? 1,5 km/h (1 Bft) S-SO 166 ? 3 min 156 W/m? 5,7 ?C 3,2 km/h (1 Bft)
03.05.2026 07:18 10,6 ?C 9,2 ?C 22,2 ?C 71 % 1013,8 hPa 0,0 l/m? 2,2 km/h (1 Bft) S-SO 166 ? 3 min 183 W/m? 5,6 ?C 4,8 km/h (1 Bft)
03.05.2026 07:21 10,9 ?C 9,4 ?C 24,3 ?C 69 % 1013,8 hPa 0,0 l/m? 1,3 km/h (1 Bft) S-SO 166 ? 3 min 212 W/m? 5,4 ?C 3,2 km/h (1 Bft)
03.05.2026 07:24 11,3 ?C 9,5 ?C 25,9 ?C 68 % 1013,7 hPa 0,0 l/m? 2,0 km/h (1 Bft) S-SO 166 ? 3 min 227 W/m? 5,6 ?C 4,8 km/h (1 Bft)
03.05.2026 07:27 11,6 ?C 9,6 ?C 26,9 ?C 67 % 1013,7 hPa 0,0 l/m? 1,7 km/h (1 Bft) S-SO 163 ? 3 min 239 W/m? 5,7 ?C 4,8 km/h (1 Bft)
03.05.2026 07:30 12,0 ?C 9,8 ?C 26,8 ?C 67 % 1013,7 hPa 0,0 l/m? 2,4 km/h (1 Bft) S-SO 152 ? 3 min 248 W/m? 6,1 ?C 4,8 km/h (1 Bft)
03.05.2026 07:33 12,2 ?C 9,9 ?C 28,0 ?C 67 % 1013,7 hPa 0,0 l/m? 1,8 km/h (1 Bft) O 90 ? 3 min 256 W/m? 6,3 ?C 4,8 km/h (1 Bft)
03.05.2026 07:36 12,5 ?C 10,1 ?C 28,5 ?C 67 % 1013,7 hPa 0,0 l/m? 1,6 km/h (1 Bft) O 90 ? 3 min 265 W/m? 6,5 ?C 3,2 km/h (1 Bft)
03.05.2026 07:39 12,6 ?C 10,3 ?C 30,0 ?C 66 % 1013,7 hPa 0,0 l/m? 1,5 km/h (1 Bft) O 89 ? 3 min 270 W/m? 6,4 ?C 3,2 km/h (1 Bft)
03.05.2026 07:42 12,8 ?C 10,3 ?C 30,8 ?C 65 % 1013,7 hPa 0,0 l/m? 1,3 km/h (1 Bft) O 89 ? 3 min 278 W/m? 6,4 ?C 4,8 km/h (1 Bft)
03.05.2026 07:45 13,1 ?C 10,5 ?C 29,7 ?C 64 % 1013,7 hPa 0,0 l/m? 2,5 km/h (1 Bft) SO 130 ? 3 min 285 W/m? 6,4 ?C 6,4 km/h (2 Bft)
03.05.2026 07:48 13,4 ?C 10,7 ?C 29,4 ?C 64 % 1013,6 hPa 0,0 l/m? 2,4 km/h (1 Bft) S-SO 147 ? 3 min 291 W/m? 6,7 ?C 3,2 km/h (1 Bft)
03.05.2026 07:51 13,7 ?C 10,9 ?C 29,2 ?C 63 % 1013,6 hPa 0,0 l/m? 4,0 km/h (1 Bft) S 172 ? 3 min 289 W/m? 6,8 ?C 6,4 km/h (2 Bft)
03.05.2026 07:54 14,0 ?C 10,9 ?C 30,7 ?C 63 % 1013,7 hPa 0,0 l/m? 3,0 km/h (1 Bft) S 191 ? 3 min 281 W/m? 7,1 ?C 6,4 km/h (2 Bft)
03.05.2026 07:57 14,4 ?C 11,3 ?C 30,2 ?C 59 % 1013,8 hPa 0,0 l/m? 4,7 km/h (1 Bft) SW 227 ? 3 min 302 W/m? 6,5 ?C 11,3 km/h (2 Bft)
03.05.2026 08:00 14,7 ?C 11,5 ?C 30,0 ?C 59 % 1013,7 hPa 0,0 l/m? 3,8 km/h (1 Bft) S-SO 166 ? 3 min 315 W/m? 6,8 ?C 6,4 km/h (2 Bft)
03.05.2026 08:03 14,9 ?C 11,6 ?C 29,8 ?C 58 % 1013,7 hPa 0,0 l/m? 3,2 km/h (1 Bft) S 177 ? 3 min 322 W/m? 6,7 ?C 6,4 km/h (2 Bft)
03.05.2026 08:06 15,2 ?C 11,8 ?C 30,3 ?C 58 % 1013,8 hPa 0,0 l/m? 3,9 km/h (1 Bft) S-SO 162 ? 3 min 329 W/m? 7,0 ?C 8,0 km/h (2 Bft)
03.05.2026 08:09 15,3 ?C 11,8 ?C 30,8 ?C 59 % 1013,8 hPa 0,0 l/m? 2,7 km/h (1 Bft) S-SO 150 ? 3 min 336 W/m? 7,3 ?C 6,4 km/h (2 Bft)
03.05.2026 08:12 15,5 ?C 12,1 ?C 29,6 ?C 59 % 1013,7 hPa 0,0 l/m? 5,3 km/h (1 Bft) S-SO 162 ? 3 min 345 W/m? 7,5 ?C 8,0 km/h (2 Bft)
03.05.2026 08:15 15,7 ?C 12,5 ?C 29,9 ?C 58 % 1013,7 hPa 0,0 l/m? 3,1 km/h (1 Bft) S-SO 161 ? 3 min 352 W/m? 7,5 ?C 6,4 km/h (2 Bft)
03.05.2026 08:18 15,9 ?C 12,6 ?C 32,3 ?C 58 % 1013,7 hPa 0,0 l/m? 2,9 km/h (1 Bft) S-SO 165 ? 3 min 359 W/m? 7,6 ?C 4,8 km/h (1 Bft)
03.05.2026 08:21 16,1 ?C 12,9 ?C 32,2 ?C 57 % 1013,6 hPa 0,0 l/m? 2,8 km/h (1 Bft) S-SO 156 ? 3 min 368 W/m? 7,6 ?C 6,4 km/h (2 Bft)
03.05.2026 08:24 16,4 ?C 13,7 ?C 33,0 ?C 56 % 1013,6 hPa 0,0 l/m? 3,4 km/h (1 Bft) S 190 ? 3 min 375 W/m? 7,6 ?C 6,4 km/h (2 Bft)
03.05.2026 08:27 16,7 ?C 17,9 ?C 32,5 ?C 56 % 1013,6 hPa 0,0 l/m? 4,2 km/h (1 Bft) S-SO 157 ? 3 min 383 W/m? 7,9 ?C 6,4 km/h (2 Bft)
03.05.2026 08:30 16,9 ?C 20,9 ?C 30,2 ?C 55 % 1013,5 hPa 0,0 l/m? 4,5 km/h (1 Bft) S-SO 165 ? 3 min 390 W/m? 7,8 ?C 9,7 km/h (2 Bft)
03.05.2026 08:33 17,1 ?C 22,7 ?C 32,1 ?C 55 % 1013,5 hPa 0,0 l/m? 3,6 km/h (1 Bft) S-SO 168 ? 3 min 397 W/m? 8,0 ?C 8,0 km/h (2 Bft)
03.05.2026 08:36 17,2 ?C 23,7 ?C 31,7 ?C 54 % 1013,6 hPa 0,0 l/m? 4,5 km/h (1 Bft) S-SO 166 ? 3 min 403 W/m? 7,8 ?C 6,4 km/h (2 Bft)
03.05.2026 08:39 17,4 ?C 25,0 ?C 32,2 ?C 54 % 1013,6 hPa 0,0 l/m? 4,0 km/h (1 Bft) S 183 ? 3 min 411 W/m? 8,0 ?C 6,4 km/h (2 Bft)
03.05.2026 08:42 17,6 ?C 26,0 ?C 31,4 ?C 53 % 1013,5 hPa 0,0 l/m? 5,2 km/h (1 Bft) S 170 ? 3 min 417 W/m? 7,9 ?C 8,0 km/h (2 Bft)
03.05.2026 08:45 17,8 ?C 26,1 ?C 31,0 ?C 52 % 1013,5 hPa 0,0 l/m? 6,2 km/h (2 Bft) S 185 ? 3 min 423 W/m? 7,8 ?C 12,9 km/h (3 Bft)
03.05.2026 08:48 18,0 ?C 26,9 ?C 30,9 ?C 52 % 1013,4 hPa 0,0 l/m? 6,1 km/h (2 Bft) S-SO 167 ? 3 min 429 W/m? 8,0 ?C 11,3 km/h (2 Bft)
03.05.2026 08:51 18,2 ?C 27,4 ?C 29,6 ?C 51 % 1013,5 hPa 0,0 l/m? 6,6 km/h (2 Bft) S 177 ? 3 min 436 W/m? 7,9 ?C 11,3 km/h (2 Bft)
03.05.2026 08:54 18,4 ?C 28,2 ?C 31,8 ?C 51 % 1013,5 hPa 0,0 l/m? 5,7 km/h (2 Bft) S-SW 205 ? 3 min 442 W/m? 8,1 ?C 11,3 km/h (2 Bft)
03.05.2026 08:57 18,7 ?C 29,2 ?C 32,9 ?C 49 % 1013,4 hPa 0,0 l/m? 4,8 km/h (1 Bft) S-SW 196 ? 3 min 450 W/m? 7,8 ?C 8,0 km/h (2 Bft)
03.05.2026 09:00 18,9 ?C 29,1 ?C 32,2 ?C 49 % 1013,4 hPa 0,0 l/m? 5,9 km/h (2 Bft) S 180 ? 3 min 458 W/m? 7,9 ?C 11,3 km/h (2 Bft)
03.05.2026 09:03 19,2 ?C 29,9 ?C 33,0 ?C 48 % 1013,4 hPa 0,0 l/m? 5,0 km/h (1 Bft) S 176 ? 3 min 464 W/m? 7,9 ?C 8,0 km/h (2 Bft)
03.05.2026 09:06 19,4 ?C 30,2 ?C 31,8 ?C 47 % 1013,4 hPa 0,0 l/m? 5,5 km/h (2 Bft) S 175 ? 3 min 471 W/m? 7,8 ?C 11,3 km/h (2 Bft)
03.05.2026 09:09 19,6 ?C 30,9 ?C 32,8 ?C 47 % 1013,4 hPa 0,0 l/m? 4,8 km/h (1 Bft) S 174 ? 3 min 477 W/m? 8,0 ?C 8,0 km/h (2 Bft)
03.05.2026 09:12 19,8 ?C 31,2 ?C 33,4 ?C 45 % 1013,4 hPa 0,0 l/m? 6,7 km/h (2 Bft) S-SW 213 ? 3 min 484 W/m? 7,5 ?C 12,9 km/h (3 Bft)
03.05.2026 09:15 20,0 ?C 31,5 ?C 32,4 ?C 45 % 1013,4 hPa 0,0 l/m? 7,0 km/h (2 Bft) S 182 ? 3 min 490 W/m? 7,7 ?C 14,5 km/h (3 Bft)
03.05.2026 09:18 20,2 ?C 31,5 ?C 32,8 ?C 44 % 1013,4 hPa 0,0 l/m? 6,8 km/h (2 Bft) S-SW 204 ? 3 min 497 W/m? 7,6 ?C 12,9 km/h (3 Bft)
03.05.2026 09:21 20,3 ?C 32,2 ?C 33,0 ?C 44 % 1013,4 hPa 0,0 l/m? 7,7 km/h (2 Bft) SW 217 ? 3 min 503 W/m? 7,6 ?C 14,5 km/h (3 Bft)
03.05.2026 09:24 20,5 ?C 32,9 ?C 33,6 ?C 45 % 1013,4 hPa 0,0 l/m? 5,1 km/h (1 Bft) S-SW 204 ? 3 min 505 W/m? 8,2 ?C 9,7 km/h (2 Bft)
03.05.2026 09:27 20,8 ?C 33,5 ?C 34,3 ?C 44 % 1013,4 hPa 0,0 l/m? 6,8 km/h (2 Bft) SW 217 ? 3 min 514 W/m? 8,1 ?C 12,9 km/h (3 Bft)
03.05.2026 09:30 21,0 ?C 33,7 ?C 35,3 ?C 44 % 1013,4 hPa 0,0 l/m? 5,0 km/h (1 Bft) SW 219 ? 3 min 520 W/m? 8,3 ?C 9,7 km/h (2 Bft)
03.05.2026 09:33 21,2 ?C 34,0 ?C 34,9 ?C 43 % 1013,4 hPa 0,0 l/m? 5,4 km/h (2 Bft) S-SW 202 ? 3 min 528 W/m? 8,1 ?C 9,7 km/h (2 Bft)
03.05.2026 09:36 21,3 ?C 34,2 ?C 33,8 ?C 42 % 1013,4 hPa 0,0 l/m? 8,5 km/h (2 Bft) S-SW 212 ? 3 min 532 W/m? 7,9 ?C 12,9 km/h (3 Bft)
03.05.2026 09:39 21,3 ?C 34,2 ?C 33,3 ?C 41 % 1013,3 hPa 0,0 l/m? 7,4 km/h (2 Bft) SW 214 ? 3 min 538 W/m? 7,5 ?C 14,5 km/h (3 Bft)
03.05.2026 09:42 21,5 ?C 34,9 ?C 35,6 ?C 41 % 1013,4 hPa 0,0 l/m? 4,8 km/h (1 Bft) SW 227 ? 3 min 543 W/m? 7,7 ?C 8,0 km/h (2 Bft)
03.05.2026 09:45 21,7 ?C 35,6 ?C 35,7 ?C 41 % 1013,3 hPa 0,0 l/m? 6,3 km/h (2 Bft) SW 222 ? 3 min 550 W/m? 7,9 ?C 14,5 km/h (3 Bft)
03.05.2026 09:48 21,9 ?C 36,5 ?C 35,9 ?C 40 % 1013,3 hPa 0,0 l/m? 4,8 km/h (1 Bft) SW 214 ? 3 min 556 W/m? 7,7 ?C 8,0 km/h (2 Bft)
03.05.2026 09:51 22,1 ?C 36,9 ?C 36,1 ?C 40 % 1013,3 hPa 0,0 l/m? 5,7 km/h (2 Bft) S-SW 206 ? 3 min 563 W/m? 7,9 ?C 11,3 km/h (2 Bft)
03.05.2026 09:54 22,2 ?C 37,2 ?C 37,3 ?C 40 % 1013,3 hPa 0,0 l/m? 4,0 km/h (1 Bft) SW 231 ? 3 min 567 W/m? 8,0 ?C 8,0 km/h (2 Bft)
03.05.2026 09:57 22,3 ?C 37,3 ?C 37,1 ?C 41 % 1013,4 hPa 0,0 l/m? 4,9 km/h (1 Bft) S-SW 202 ? 3 min 575 W/m? 8,4 ?C 11,3 km/h (2 Bft)
03.05.2026 10:00 22,5 ?C 37,6 ?C 38,3 ?C 41 % 1013,4 hPa 0,0 l/m? 3,9 km/h (1 Bft) S 188 ? 3 min 572 W/m? 8,6 ?C 11,3 km/h (2 Bft)
03.05.2026 10:03 22,7 ?C 37,9 ?C 35,8 ?C 40 % 1013,3 hPa 0,0 l/m? 6,2 km/h (2 Bft) W-SW 243 ? 3 min 585 W/m? 8,4 ?C 12,9 km/h (3 Bft)
03.05.2026 10:06 22,8 ?C 38,3 ?C 36,7 ?C 39 % 1013,4 hPa 0,0 l/m? 5,1 km/h (1 Bft) S-SW 208 ? 3 min 587 W/m? 8,1 ?C 9,7 km/h (2 Bft)
03.05.2026 10:09 22,8 ?C 37,9 ?C 36,1 ?C 39 % 1013,3 hPa 0,0 l/m? 5,5 km/h (2 Bft) S-SW 195 ? 3 min 594 W/m? 8,1 ?C 12,9 km/h (3 Bft)
03.05.2026 10:12 22,8 ?C 38,1 ?C 36,5 ?C 40 % 1013,3 hPa 0,0 l/m? 4,6 km/h (1 Bft) S-SW 208 ? 3 min 597 W/m? 8,5 ?C 11,3 km/h (2 Bft)
03.05.2026 10:15 23,0 ?C 38,0 ?C 34,4 ?C 39 % 1013,3 hPa 0,0 l/m? 6,3 km/h (2 Bft) S 171 ? 3 min 601 W/m? 8,3 ?C 12,9 km/h (3 Bft)
03.05.2026 10:18 23,1 ?C 38,2 ?C 35,4 ?C 40 % 1013,3 hPa 0,0 l/m? 4,6 km/h (1 Bft) S 188 ? 3 min 608 W/m? 8,8 ?C 8,0 km/h (2 Bft)
03.05.2026 10:21 23,1 ?C 37,8 ?C 33,2 ?C 38 % 1013,2 hPa 0,0 l/m? 7,4 km/h (2 Bft) S 180 ? 3 min 614 W/m? 8,0 ?C 12,9 km/h (3 Bft)
03.05.2026 10:24 23,2 ?C 38,9 ?C 34,7 ?C 39 % 1013,2 hPa 0,0 l/m? 5,6 km/h (2 Bft) S-SW 202 ? 3 min 616 W/m? 8,5 ?C 9,7 km/h (2 Bft)
03.05.2026 10:27 23,5 ?C 38,9 ?C 35,4 ?C 38 % 1013,1 hPa 0,0 l/m? 5,9 km/h (2 Bft) SW 214 ? 3 min 618 W/m? 8,4 ?C 9,7 km/h (2 Bft)
03.05.2026 10:30 23,6 ?C 39,4 ?C 34,9 ?C 38 % 1013,1 hPa 0,0 l/m? 7,0 km/h (2 Bft) S 181 ? 3 min 618 W/m? 8,4 ?C 14,5 km/h (3 Bft)
03.05.2026 10:33 23,5 ?C 39,3 ?C 34,3 ?C 38 % 1013,2 hPa 0,0 l/m? 6,8 km/h (2 Bft) S-SW 195 ? 3 min 628 W/m? 8,4 ?C 16,1 km/h (3 Bft)
03.05.2026 10:36 23,6 ?C 39,4 ?C 33,8 ?C 38 % 1013,1 hPa 0,0 l/m? 7,8 km/h (2 Bft) S 191 ? 3 min 632 W/m? 8,4 ?C 14,5 km/h (3 Bft)
03.05.2026 10:39 23,7 ?C 39,0 ?C 33,2 ?C 38 % 1013,1 hPa 0,0 l/m? 8,8 km/h (2 Bft) S-SW 194 ? 3 min 635 W/m? 8,5 ?C 16,1 km/h (3 Bft)
03.05.2026 10:42 23,8 ?C 39,2 ?C 33,4 ?C 38 % 1013,1 hPa 0,0 l/m? 7,9 km/h (2 Bft) SW 220 ? 3 min 641 W/m? 8,6 ?C 16,1 km/h (3 Bft)
03.05.2026 10:45 23,8 ?C 39,6 ?C 33,8 ?C 37 % 1013,2 hPa 0,0 l/m? 9,2 km/h (2 Bft) SW 216 ? 3 min 643 W/m? 8,2 ?C 16,1 km/h (3 Bft)
03.05.2026 10:48 24,0 ?C 39,0 ?C 34,2 ?C 38 % 1013,1 hPa 0,0 l/m? 6,3 km/h (2 Bft) S-SW 194 ? 3 min 647 W/m? 8,8 ?C 12,9 km/h (3 Bft)
03.05.2026 10:51 24,3 ?C 38,9 ?C 34,6 ?C 37 % 1013,1 hPa 0,0 l/m? 7,3 km/h (2 Bft) S-SW 200 ? 3 min 654 W/m? 8,7 ?C 20,9 km/h (4 Bft)
03.05.2026 10:54 24,4 ?C 38,9 ?C 33,9 ?C 38 % 1013,0 hPa 0,0 l/m? 6,8 km/h (2 Bft) S-SW 207 ? 3 min 655 W/m? 9,2 ?C 14,5 km/h (3 Bft)
03.05.2026 10:57 24,6 ?C 37,9 ?C 34,0 ?C 37 % 1013,0 hPa 0,0 l/m? 9,6 km/h (2 Bft) SW 225 ? 3 min 650 W/m? 8,9 ?C 16,1 km/h (3 Bft)
03.05.2026 11:00 24,5 ?C 36,6 ?C 33,4 ?C 36 % 1013,0 hPa 0,0 l/m? 8,7 km/h (2 Bft) SW 221 ? 3 min 660 W/m? 8,4 ?C 16,1 km/h (3 Bft)
03.05.2026 11:03 24,7 ?C 34,3 ?C 34,3 ?C 37 % 1013,0 hPa 0,0 l/m? 7,8 km/h (2 Bft) SW 221 ? 3 min 665 W/m? 9,0 ?C 14,5 km/h (3 Bft)
03.05.2026 11:06 24,7 ?C 36,0 ?C 32,6 ?C 36 % 1013,0 hPa 0,0 l/m? 12,6 km/h (3 Bft) S-SW 196 ? 3 min 671 W/m? 8,6 ?C 17,7 km/h (3 Bft)
03.05.2026 11:09 24,7 ?C 36,6 ?C 31,8 ?C 37 % 1013,0 hPa 0,0 l/m? 10,9 km/h (2 Bft) S-SW 209 ? 3 min 673 W/m? 9,0 ?C 19,3 km/h (3 Bft)
03.05.2026 11:12 24,9 ?C 38,3 ?C 32,8 ?C 36 % 1013,0 hPa 0,0 l/m? 10,1 km/h (2 Bft) SW 234 ? 3 min 676 W/m? 8,8 ?C 16,1 km/h (3 Bft)
03.05.2026 11:15 25,0 ?C 38,5 ?C 32,7 ?C 35 % 1013,0 hPa 0,0 l/m? 11,5 km/h (2 Bft) SW 221 ? 3 min 679 W/m? 8,5 ?C 19,3 km/h (3 Bft)
03.05.2026 11:18 25,0 ?C 37,9 ?C 32,8 ?C 35 % 1013,0 hPa 0,0 l/m? 8,5 km/h (2 Bft) SW 217 ? 3 min 682 W/m? 8,5 ?C 19,3 km/h (3 Bft)
03.05.2026 11:21 25,0 ?C 38,3 ?C 33,3 ?C 35 % 1013,0 hPa 0,0 l/m? 8,9 km/h (2 Bft) S-SW 206 ? 3 min 684 W/m? 8,5 ?C 19,3 km/h (3 Bft)
03.05.2026 11:24 25,1 ?C 38,4 ?C 33,8 ?C 36 % 1013,0 hPa 0,0 l/m? 8,0 km/h (2 Bft) S-SW 209 ? 3 min 686 W/m? 9,0 ?C 16,1 km/h (3 Bft)
03.05.2026 11:27 25,3 ?C 38,3 ?C 33,4 ?C 36 % 1013,0 hPa 0,0 l/m? 9,6 km/h (2 Bft) SW 219 ? 3 min 687 W/m? 9,1 ?C 16,1 km/h (3 Bft)
03.05.2026 11:30 25,2 ?C 38,3 ?C 33,6 ?C 35 % 1012,9 hPa 0,0 l/m? 9,3 km/h (2 Bft) SW 219 ? 3 min 688 W/m? 8,6 ?C 16,1 km/h (3 Bft)
03.05.2026 11:33 25,2 ?C 37,2 ?C 32,7 ?C 35 % 1012,9 hPa 0,0 l/m? 8,7 km/h (2 Bft) S-SW 212 ? 3 min 689 W/m? 8,6 ?C 12,9 km/h (3 Bft)
03.05.2026 11:36 25,5 ?C 36,3 ?C 33,2 ?C 35 % 1012,9 hPa 0,0 l/m? 9,0 km/h (2 Bft) SW 217 ? 3 min 693 W/m? 8,9 ?C 16,1 km/h (3 Bft)
03.05.2026 11:39 25,5 ?C 34,9 ?C 32,3 ?C 36 % 1012,9 hPa 0,0 l/m? 7,5 km/h (2 Bft) S 179 ? 3 min 696 W/m? 9,3 ?C 14,5 km/h (3 Bft)
03.05.2026 11:42 25,7 ?C 35,9 ?C 33,5 ?C 35 % 1012,8 hPa 0,0 l/m? 6,7 km/h (2 Bft) SW 215 ? 3 min 697 W/m? 9,1 ?C 14,5 km/h (3 Bft)
03.05.2026 11:45 25,9 ?C 36,2 ?C 33,4 ?C 35 % 1012,8 hPa 0,0 l/m? 8,2 km/h (2 Bft) S 190 ? 3 min 701 W/m? 9,3 ?C 19,3 km/h (3 Bft)
03.05.2026 11:48 26,1 ?C 36,3 ?C 32,2 ?C 34 % 1012,8 hPa 0,0 l/m? 8,8 km/h (2 Bft) SW 219 ? 3 min 701 W/m? 9,0 ?C 14,5 km/h (3 Bft)
03.05.2026 11:51 26,1 ?C 36,1 ?C 32,2 ?C 35 % 1012,8 hPa 0,0 l/m? 8,5 km/h (2 Bft) S 181 ? 3 min 701 W/m? 9,4 ?C 16,1 km/h (3 Bft)
03.05.2026 11:54 26,1 ?C 36,4 ?C 31,2 ?C 34 % 1012,7 hPa 0,0 l/m? 8,3 km/h (2 Bft) S 171 ? 3 min 704 W/m? 9,0 ?C 16,1 km/h (3 Bft)
03.05.2026 11:57 26,3 ?C 36,8 ?C 32,0 ?C 35 % 1012,7 hPa 0,0 l/m? 7,8 km/h (2 Bft) S-SW 199 ? 3 min 706 W/m? 9,6 ?C 17,7 km/h (3 Bft)
03.05.2026 12:00 26,3 ?C 36,9 ?C 31,6 ?C 34 % 1012,7 hPa 0,0 l/m? 9,3 km/h (2 Bft) S-SW 196 ? 3 min 706 W/m? 9,2 ?C 16,1 km/h (3 Bft)
03.05.2026 12:03 26,4 ?C 36,9 ?C 31,3 ?C 34 % 1012,6 hPa 0,0 l/m? 8,0 km/h (2 Bft) S 184 ? 3 min 712 W/m? 9,3 ?C 12,9 km/h (3 Bft)
03.05.2026 12:06 26,4 ?C 37,3 ?C 31,4 ?C 34 % 1012,6 hPa 0,0 l/m? 9,6 km/h (2 Bft) SW 235 ? 3 min 713 W/m? 9,3 ?C 16,1 km/h (3 Bft)
03.05.2026 12:09 26,5 ?C 37,9 ?C 31,7 ?C 34 % 1012,6 hPa 0,0 l/m? 6,6 km/h (2 Bft) SW 232 ? 3 min 714 W/m? 9,3 ?C 12,9 km/h (3 Bft)
03.05.2026 12:12 26,5 ?C 37,4 ?C 30,9 ?C 33 % 1012,6 hPa 0,0 l/m? 10,6 km/h (2 Bft) S-SW 196 ? 3 min 720 W/m? 8,9 ?C 17,7 km/h (3 Bft)
03.05.2026 12:15 26,5 ?C 36,8 ?C 30,5 ?C 33 % 1012,6 hPa 0,0 l/m? 10,9 km/h (2 Bft) S-SW 210 ? 3 min 721 W/m? 8,9 ?C 19,3 km/h (3 Bft)
03.05.2026 12:18 26,5 ?C 37,5 ?C 30,3 ?C 33 % 1012,6 hPa 0,0 l/m? 9,6 km/h (2 Bft) S-SW 210 ? 3 min 720 W/m? 8,9 ?C 16,1 km/h (3 Bft)
03.05.2026 12:21 26,5 ?C 37,3 ?C 29,9 ?C 32 % 1012,5 hPa 0,0 l/m? 8,3 km/h (2 Bft) S-SW 211 ? 3 min 721 W/m? 8,4 ?C 16,1 km/h (3 Bft)
03.05.2026 12:24 26,7 ?C 37,5 ?C 30,3 ?C 33 % 1012,5 hPa 0,0 l/m? 6,7 km/h (2 Bft) S 169 ? 3 min 724 W/m? 9,1 ?C 14,5 km/h (3 Bft)
03.05.2026 12:27 27,0 ?C 37,6 ?C 30,4 ?C 33 % 1012,4 hPa 0,0 l/m? 9,2 km/h (2 Bft) S 178 ? 3 min 727 W/m? 9,3 ?C 20,9 km/h (4 Bft)
03.05.2026 12:30 27,1 ?C 37,1 ?C 29,8 ?C 31 % 1012,4 hPa 0,0 l/m? 8,0 km/h (2 Bft) S 174 ? 3 min 727 W/m? 8,5 ?C 17,7 km/h (3 Bft)
03.05.2026 12:33 27,0 ?C 36,7 ?C 30,0 ?C 31 % 1012,4 hPa 0,0 l/m? 6,9 km/h (2 Bft) S 174 ? 3 min 728 W/m? 8,4 ?C 14,5 km/h (3 Bft)
03.05.2026 12:36 27,2 ?C 36,4 ?C 29,9 ?C 32 % 1012,4 hPa 0,0 l/m? 7,9 km/h (2 Bft) S 191 ? 3 min 727 W/m? 9,1 ?C 17,7 km/h (3 Bft)
03.05.2026 12:39 27,3 ?C 36,4 ?C 29,9 ?C 30 % 1012,3 hPa 0,0 l/m? 9,7 km/h (2 Bft) S-SO 167 ? 3 min 725 W/m? 8,2 ?C 19,3 km/h (3 Bft)
03.05.2026 12:42 27,1 ?C 36,1 ?C 29,3 ?C 31 % 1012,3 hPa 0,0 l/m? 8,7 km/h (2 Bft) S-SO 163 ? 3 min 728 W/m? 8,5 ?C 16,1 km/h (3 Bft)
03.05.2026 12:45 27,3 ?C 35,8 ?C 29,1 ?C 29 % 1012,2 hPa 0,0 l/m? 10,4 km/h (2 Bft) S 180 ? 3 min 727 W/m? 7,7 ?C 17,7 km/h (3 Bft)
03.05.2026 12:48 27,4 ?C 35,7 ?C 29,4 ?C 29 % 1012,2 hPa 0,0 l/m? 8,6 km/h (2 Bft) S 169 ? 3 min 726 W/m? 7,8 ?C 20,9 km/h (4 Bft)
03.05.2026 12:51 27,5 ?C 35,7 ?C 29,5 ?C 28 % 1012,1 hPa 0,0 l/m? 9,0 km/h (2 Bft) S 182 ? 3 min 724 W/m? 7,3 ?C 14,5 km/h (3 Bft)
03.05.2026 12:54 27,6 ?C 35,3 ?C 29,8 ?C 28 % 1012,1 hPa 0,0 l/m? 7,1 km/h (2 Bft) S 191 ? 3 min 724 W/m? 7,4 ?C 14,5 km/h (3 Bft)
03.05.2026 12:57 27,9 ?C 35,5 ?C 30,0 ?C 29 % 1012,1 hPa 0,0 l/m? 8,9 km/h (2 Bft) SW 224 ? 3 min 725 W/m? 8,2 ?C 16,1 km/h (3 Bft)
03.05.2026 13:00 27,9 ?C 35,9 ?C 30,1 ?C 28 % 1012,1 hPa 0,0 l/m? 6,7 km/h (2 Bft) S-SW 208 ? 3 min 726 W/m? 7,7 ?C 16,1 km/h (3 Bft)
03.05.2026 13:03 28,2 ?C 36,2 ?C 30,7 ?C 30 % 1012,1 hPa 0,0 l/m? 7,3 km/h (2 Bft) S 186 ? 3 min 722 W/m? 9,0 ?C 17,7 km/h (3 Bft)
03.05.2026 13:06 28,3 ?C 36,5 ?C 29,3 ?C 28 % 1012,1 hPa 0,0 l/m? 6,7 km/h (2 Bft) SW 222 ? 3 min 725 W/m? 8,0 ?C 14,5 km/h (3 Bft)
03.05.2026 13:09 28,3 ?C 35,9 ?C 29,7 ?C 28 % 1012,0 hPa 0,0 l/m? 6,0 km/h (2 Bft) W-SW 241 ? 3 min 719 W/m? 8,0 ?C 9,7 km/h (2 Bft)
03.05.2026 13:12 28,1 ?C 33,6 ?C 29,3 ?C 27 % 1011,9 hPa 0,0 l/m? 8,9 km/h (2 Bft) S-SW 203 ? 3 min 723 W/m? 7,3 ?C 16,1 km/h (3 Bft)
03.05.2026 13:15 28,2 ?C 33,0 ?C 29,0 ?C 27 % 1011,9 hPa 0,0 l/m? 9,9 km/h (2 Bft) S 189 ? 3 min 723 W/m? 7,4 ?C 19,3 km/h (3 Bft)
03.05.2026 13:18 28,1 ?C 32,4 ?C 29,3 ?C 28 % 1011,9 hPa 0,0 l/m? 9,7 km/h (2 Bft) S-SW 195 ? 3 min 717 W/m? 7,9 ?C 17,7 km/h (3 Bft)
03.05.2026 13:21 28,0 ?C 32,0 ?C 29,1 ?C 27 % 1011,9 hPa 0,0 l/m? 10,6 km/h (2 Bft) SW 215 ? 3 min 700 W/m? 7,2 ?C 19,3 km/h (3 Bft)
03.05.2026 13:24 28,0 ?C 31,9 ?C 29,3 ?C 28 % 1011,8 hPa 0,0 l/m? 7,5 km/h (2 Bft) S-SW 194 ? 3 min 700 W/m? 7,8 ?C 14,5 km/h (3 Bft)
03.05.2026 13:27 28,0 ?C 31,7 ?C 29,2 ?C 27 % 1011,7 hPa 0,0 l/m? 7,5 km/h (2 Bft) S-SW 196 ? 3 min 700 W/m? 7,2 ?C 17,7 km/h (3 Bft)
03.05.2026 13:30 28,1 ?C 31,9 ?C 29,3 ?C 29 % 1011,8 hPa 0,0 l/m? 10,2 km/h (2 Bft) SW 214 ? 3 min 698 W/m? 8,4 ?C 19,3 km/h (3 Bft)
03.05.2026 13:33 28,2 ?C 32,2 ?C 29,5 ?C 29 % 1011,7 hPa 0,0 l/m? 8,2 km/h (2 Bft) SW 221 ? 3 min 700 W/m? 8,5 ?C 12,9 km/h (3 Bft)
03.05.2026 13:36 28,1 ?C 32,5 ?C 29,4 ?C 28 % 1011,8 hPa 0,0 l/m? 11,3 km/h (2 Bft) S-SW 200 ? 3 min 701 W/m? 7,9 ?C 19,3 km/h (3 Bft)
03.05.2026 13:39 28,2 ?C 32,7 ?C 29,3 ?C 28 % 1011,7 hPa 0,0 l/m? 7,3 km/h (2 Bft) S-SW 202 ? 3 min 697 W/m? 7,9 ?C 16,1 km/h (3 Bft)
03.05.2026 13:42 28,5 ?C 32,8 ?C 29,5 ?C 28 % 1011,7 hPa 0,0 l/m? 7,5 km/h (2 Bft) S 175 ? 3 min 698 W/m? 8,2 ?C 17,7 km/h (3 Bft)
03.05.2026 13:45 28,6 ?C 32,8 ?C 29,6 ?C 27 % 1011,6 hPa 0,0 l/m? 10,5 km/h (2 Bft) SW 220 ? 3 min 693 W/m? 7,8 ?C 19,3 km/h (3 Bft)
03.05.2026 13:48 28,5 ?C 32,5 ?C 29,7 ?C 28 % 1011,6 hPa 0,0 l/m? 7,3 km/h (2 Bft) SW 221 ? 3 min 700 W/m? 8,2 ?C 14,5 km/h (3 Bft)
03.05.2026 13:51 28,6 ?C 32,0 ?C 30,0 ?C 28 % 1011,6 hPa 0,0 l/m? 9,9 km/h (2 Bft) SW 218 ? 3 min 703 W/m? 8,3 ?C 19,3 km/h (3 Bft)
03.05.2026 13:54 28,5 ?C 31,6 ?C 29,6 ?C 28 % 1011,6 hPa 0,0 l/m? 9,7 km/h (2 Bft) SW 236 ? 3 min 700 W/m? 8,2 ?C 20,9 km/h (4 Bft)
03.05.2026 13:57 28,7 ?C 31,6 ?C 29,5 ?C 27 % 1011,5 hPa 0,0 l/m? 12,6 km/h (3 Bft) SW 216 ? 3 min 693 W/m? 7,8 ?C 24,1 km/h (4 Bft)
03.05.2026 14:00 28,4 ?C 31,7 ?C 29,5 ?C 28 % 1011,5 hPa 0,0 l/m? 10,2 km/h (2 Bft) S-SW 208 ? 3 min 689 W/m? 8,1 ?C 17,7 km/h (3 Bft)
03.05.2026 14:03 28,6 ?C 31,4 ?C 29,8 ?C 27 % 1011,5 hPa 0,0 l/m? 8,5 km/h (2 Bft) SW 224 ? 3 min 684 W/m? 7,8 ?C 14,5 km/h (3 Bft)
03.05.2026 14:06 28,4 ?C 31,2 ?C 29,7 ?C 27 % 1011,4 hPa 0,0 l/m? 9,9 km/h (2 Bft) S-SW 210 ? 3 min 691 W/m? 7,6 ?C 16,1 km/h (3 Bft)
03.05.2026 14:09 28,5 ?C 31,1 ?C 29,9 ?C 28 % 1011,3 hPa 0,0 l/m? 7,4 km/h (2 Bft) S 182 ? 3 min 691 W/m? 8,2 ?C 16,1 km/h (3 Bft)
03.05.2026 14:12 28,6 ?C 30,9 ?C 29,4 ?C 27 % 1011,3 hPa 0,0 l/m? 13,3 km/h (3 Bft) S 173 ? 3 min 689 W/m? 7,8 ?C 25,7 km/h (4 Bft)
03.05.2026 14:15 28,6 ?C 30,8 ?C 29,5 ?C 28 % 1011,4 hPa 0,0 l/m? 9,5 km/h (2 Bft) S 186 ? 3 min 687 W/m? 8,3 ?C 20,9 km/h (4 Bft)
03.05.2026 14:18 28,6 ?C 30,7 ?C 29,7 ?C 26 % 1011,3 hPa 0,0 l/m? 8,8 km/h (2 Bft) S 187 ? 3 min 684 W/m? 7,2 ?C 14,5 km/h (3 Bft)
03.05.2026 14:21 28,3 ?C 30,5 ?C 29,4 ?C 26 % 1011,2 hPa 0,0 l/m? 11,3 km/h (2 Bft) S-SO 166 ? 3 min 678 W/m? 6,9 ?C 17,7 km/h (3 Bft)
03.05.2026 14:24 28,1 ?C 30,4 ?C 28,9 ?C 27 % 1011,3 hPa 0,0 l/m? 13,3 km/h (3 Bft) S 175 ? 3 min 668 W/m? 7,3 ?C 20,9 km/h (4 Bft)
03.05.2026 14:27 28,2 ?C 30,5 ?C 29,1 ?C 27 % 1011,2 hPa 0,0 l/m? 8,9 km/h (2 Bft) S-SO 159 ? 3 min 669 W/m? 7,4 ?C 16,1 km/h (3 Bft)
03.05.2026 14:30 28,5 ?C 30,2 ?C 29,9 ?C 28 % 1011,2 hPa 0,0 l/m? 7,5 km/h (2 Bft) S 187 ? 3 min 660 W/m? 8,2 ?C 14,5 km/h (3 Bft)
03.05.2026 14:33 28,5 ?C 30,3 ?C 29,2 ?C 26 % 1011,1 hPa 0,0 l/m? 12,6 km/h (3 Bft) S-SO 163 ? 3 min 656 W/m? 7,1 ?C 20,9 km/h (4 Bft)
03.05.2026 14:36 28,5 ?C 30,1 ?C 29,8 ?C 28 % 1011,2 hPa 0,0 l/m? 6,9 km/h (2 Bft) S-SW 200 ? 3 min 649 W/m? 8,2 ?C 12,9 km/h (3 Bft)
03.05.2026 14:39 28,9 ?C 30,1 ?C 30,4 ?C 27 % 1011,1 hPa 0,0 l/m? 8,5 km/h (2 Bft) S-SW 194 ? 3 min 649 W/m? 8,0 ?C 16,1 km/h (3 Bft)
03.05.2026 14:42 28,8 ?C 30,0 ?C 29,8 ?C 26 % 1011,1 hPa 0,0 l/m? 12,6 km/h (3 Bft) S-SW 205 ? 3 min 643 W/m? 7,4 ?C 19,3 km/h (3 Bft)
03.05.2026 14:45 28,6 ?C 29,8 ?C 29,5 ?C 25 % 1011,1 hPa 0,0 l/m? 8,2 km/h (2 Bft) S 176 ? 3 min 645 W/m? 6,6 ?C 12,9 km/h (3 Bft)
03.05.2026 14:48 28,5 ?C 29,8 ?C 29,6 ?C 26 % 1011,0 hPa 0,0 l/m? 8,4 km/h (2 Bft) S 170 ? 3 min 643 W/m? 7,1 ?C 16,1 km/h (3 Bft)
03.05.2026 14:51 28,6 ?C 29,7 ?C 29,4 ?C 26 % 1011,0 hPa 0,0 l/m? 13,4 km/h (3 Bft) S-SO 163 ? 3 min 642 W/m? 7,2 ?C 20,9 km/h (4 Bft)
03.05.2026 14:54 28,5 ?C 29,8 ?C 29,4 ?C 26 % 1011,0 hPa 0,0 l/m? 9,5 km/h (2 Bft) S 180 ? 3 min 640 W/m? 7,1 ?C 16,1 km/h (3 Bft)
03.05.2026 14:57 28,4 ?C 29,7 ?C 29,6 ?C 27 % 1011,1 hPa 0,0 l/m? 11,5 km/h (2 Bft) S 185 ? 3 min 633 W/m? 7,6 ?C 20,9 km/h (4 Bft)
03.05.2026 15:00 28,4 ?C 29,6 ?C 29,5 ?C 26 % 1011,0 hPa 0,0 l/m? 9,0 km/h (2 Bft) S-SO 165 ? 3 min 631 W/m? 7,0 ?C 16,1 km/h (3 Bft)
03.05.2026 15:03 28,6 ?C 29,3 ?C 30,3 ?C 27 % 1010,9 hPa 0,0 l/m? 4,1 km/h (1 Bft) S-SW 207 ? 3 min 626 W/m? 7,8 ?C 8,0 km/h (2 Bft)
03.05.2026 15:06 28,7 ?C 29,7 ?C 30,0 ?C 26 % 1010,9 hPa 0,0 l/m? 11,4 km/h (2 Bft) S 174 ? 3 min 625 W/m? 7,3 ?C 19,3 km/h (3 Bft)
03.05.2026 15:09 28,7 ?C 30,0 ?C 29,9 ?C 26 % 1010,8 hPa 0,0 l/m? 11,8 km/h (2 Bft) S-SW 196 ? 3 min 607 W/m? 7,3 ?C 22,5 km/h (4 Bft)
03.05.2026 15:12 28,8 ?C 29,9 ?C 30,0 ?C 26 % 1010,9 hPa 0,0 l/m? 11,6 km/h (2 Bft) SW 217 ? 3 min 621 W/m? 7,4 ?C 22,5 km/h (4 Bft)
03.05.2026 15:15 28,8 ?C 29,8 ?C 30,2 ?C 26 % 1010,8 hPa 0,0 l/m? 10,6 km/h (2 Bft) S 178 ? 3 min 616 W/m? 7,4 ?C 22,5 km/h (4 Bft)
03.05.2026 15:18 28,7 ?C 30,1 ?C 29,9 ?C 26 % 1010,8 hPa 0,0 l/m? 10,9 km/h (2 Bft) S-SW 207 ? 3 min 608 W/m? 7,3 ?C 19,3 km/h (3 Bft)
03.05.2026 15:21 28,5 ?C 30,9 ?C 29,6 ?C 26 % 1010,8 hPa 0,0 l/m? 9,4 km/h (2 Bft) S 174 ? 3 min 592 W/m? 7,1 ?C 19,3 km/h (3 Bft)
03.05.2026 15:24 28,5 ?C 31,6 ?C 30,3 ?C 27 % 1010,8 hPa 0,0 l/m? 10,3 km/h (2 Bft) SW 215 ? 3 min 598 W/m? 7,7 ?C 16,1 km/h (3 Bft)
03.05.2026 15:27 28,8 ?C 32,0 ?C 30,4 ?C 26 % 1010,7 hPa 0,0 l/m? 11,9 km/h (2 Bft) SW 235 ? 3 min 601 W/m? 7,4 ?C 22,5 km/h (4 Bft)
03.05.2026 15:30 28,8 ?C 32,2 ?C 30,2 ?C 26 % 1010,7 hPa 0,0 l/m? 11,6 km/h (2 Bft) SW 222 ? 3 min 556 W/m? 7,4 ?C 17,7 km/h (3 Bft)
03.05.2026 15:33 28,7 ?C 32,2 ?C 30,1 ?C 26 % 1010,7 hPa 0,0 l/m? 9,4 km/h (2 Bft) S 177 ? 3 min 571 W/m? 7,3 ?C 16,1 km/h (3 Bft)
03.05.2026 15:36 28,7 ?C 32,2 ?C 29,9 ?C 27 % 1010,6 hPa 0,0 l/m? 10,6 km/h (2 Bft) S 176 ? 3 min 554 W/m? 7,8 ?C 22,5 km/h (4 Bft)
03.05.2026 15:39 28,7 ?C 32,1 ?C 30,1 ?C 27 % 1010,5 hPa 0,0 l/m? 7,4 km/h (2 Bft) S-SW 193 ? 3 min 527 W/m? 7,8 ?C 19,3 km/h (3 Bft)
03.05.2026 15:42 28,7 ?C 31,5 ?C 29,5 ?C 27 % 1010,5 hPa 0,0 l/m? 7,7 km/h (2 Bft) S-SO 163 ? 0 min 165 W/m? 7,8 ?C 17,7 km/h (3 Bft)
03.05.2026 15:45 28,6 ?C 31,4 ?C 30,0 ?C 27 % 1010,4 hPa 0,0 l/m? 8,0 km/h (2 Bft) S-SW 195 ? 3 min 517 W/m? 7,8 ?C 14,5 km/h (3 Bft)
03.05.2026 15:48 28,7 ?C 31,4 ?C 30,3 ?C 26 % 1010,4 hPa 0,0 l/m? 7,3 km/h (2 Bft) SW 215 ? 3 min 519 W/m? 7,3 ?C 16,1 km/h (3 Bft)
03.05.2026 15:51 28,8 ?C 31,1 ?C 30,4 ?C 26 % 1010,5 hPa 0,0 l/m? 8,2 km/h (2 Bft) S-SW 195 ? 3 min 503 W/m? 7,4 ?C 17,7 km/h (3 Bft)
03.05.2026 15:54 28,7 ?C 30,9 ?C 30,6 ?C 26 % 1010,4 hPa 0,0 l/m? 6,5 km/h (2 Bft) SW 231 ? 3 min 452 W/m? 7,3 ?C 14,5 km/h (3 Bft)
03.05.2026 15:57 28,7 ?C 30,7 ?C 30,8 ?C 26 % 1010,4 hPa 0,0 l/m? 10,8 km/h (2 Bft) SW 225 ? 3 min 540 W/m? 7,3 ?C 20,9 km/h (4 Bft)
03.05.2026 16:00 28,7 ?C 30,7 ?C 30,3 ?C 27 % 1010,4 hPa 0,0 l/m? 10,3 km/h (2 Bft) S-SW 213 ? 3 min 550 W/m? 7,8 ?C 17,7 km/h (3 Bft)
03.05.2026 16:03 28,5 ?C 30,8 ?C 30,5 ?C 26 % 1010,4 hPa 0,0 l/m? 6,2 km/h (2 Bft) SW 214 ? 3 min 492 W/m? 7,1 ?C 14,5 km/h (3 Bft)
03.05.2026 16:06 28,4 ?C 30,6 ?C 31,2 ?C 26 % 1010,3 hPa 0,0 l/m? 3,7 km/h (1 Bft) S-SW 198 ? 3 min 527 W/m? 7,0 ?C 8,0 km/h (2 Bft)
03.05.2026 16:09 28,3 ?C 30,7 ?C 31,2 ?C 26 % 1010,3 hPa 0,0 l/m? 5,6 km/h (2 Bft) S-SW 205 ? 3 min 537 W/m? 6,9 ?C 19,3 km/h (3 Bft)
03.05.2026 16:12 28,5 ?C 30,6 ?C 30,9 ?C 26 % 1010,2 hPa 0,0 l/m? 11,0 km/h (2 Bft) SW 226 ? 3 min 533 W/m? 7,1 ?C 19,3 km/h (3 Bft)
03.05.2026 16:15 28,7 ?C 30,3 ?C 30,6 ?C 25 % 1010,2 hPa 0,0 l/m? 12,5 km/h (2 Bft) SW 228 ? 3 min 509 W/m? 6,7 ?C 20,9 km/h (4 Bft)
03.05.2026 16:18 28,7 ?C 29,8 ?C 30,4 ?C 26 % 1010,2 hPa 0,0 l/m? 9,4 km/h (2 Bft) SW 234 ? 3 min 470 W/m? 7,3 ?C 19,3 km/h (3 Bft)
03.05.2026 16:21 28,8 ?C 29,5 ?C 31,1 ?C 26 % 1010,2 hPa 0,0 l/m? 6,6 km/h (2 Bft) W-SW 237 ? 3 min 490 W/m? 7,4 ?C 16,1 km/h (3 Bft)
03.05.2026 16:24 28,9 ?C 28,9 ?C 31,5 ?C 27 % 1010,2 hPa 0,0 l/m? 7,2 km/h (2 Bft) W 260 ? 3 min 482 W/m? 8,0 ?C 19,3 km/h (3 Bft)
03.05.2026 16:27 28,9 ?C 28,6 ?C 31,4 ?C 27 % 1010,2 hPa 0,0 l/m? 5,5 km/h (2 Bft) W-SW 240 ? 3 min 483 W/m? 8,0 ?C 16,1 km/h (3 Bft)
03.05.2026 16:30 28,9 ?C 28,3 ?C 31,0 ?C 26 % 1010,1 hPa 0,0 l/m? 6,3 km/h (2 Bft) SW 229 ? 3 min 342 W/m? 7,5 ?C 14,5 km/h (3 Bft)
03.05.2026 16:33 28,5 ?C 28,1 ?C 30,6 ?C 27 % 1010,1 hPa 0,0 l/m? 7,9 km/h (2 Bft) SW 217 ? 3 min 398 W/m? 7,7 ?C 16,1 km/h (3 Bft)
03.05.2026 16:36 28,5 ?C 28,2 ?C 30,9 ?C 27 % 1010,1 hPa 0,0 l/m? 9,0 km/h (2 Bft) W-SW 239 ? 3 min 471 W/m? 7,7 ?C 17,7 km/h (3 Bft)
03.05.2026 16:39 28,4 ?C 28,0 ?C 30,5 ?C 27 % 1010,1 hPa 0,0 l/m? 12,6 km/h (3 Bft) W-SW 247 ? 3 min 458 W/m? 7,6 ?C 19,3 km/h (3 Bft)
03.05.2026 16:42 28,3 ?C 27,5 ?C 30,6 ?C 27 % 1010,0 hPa 0,0 l/m? 9,5 km/h (2 Bft) W-SW 253 ? 3 min 451 W/m? 7,5 ?C 14,5 km/h (3 Bft)
03.05.2026 16:45 28,4 ?C 27,5 ?C 30,6 ?C 27 % 1010,0 hPa 0,0 l/m? 6,3 km/h (2 Bft) S-SW 197 ? 0 min 190 W/m? 7,6 ?C 12,9 km/h (3 Bft)
03.05.2026 16:48 28,2 ?C 27,0 ?C 29,6 ?C 27 % 1010,0 hPa 0,0 l/m? 9,2 km/h (2 Bft) SW 217 ? 0 min 255 W/m? 7,4 ?C 19,3 km/h (3 Bft)
03.05.2026 16:51 27,9 ?C 27,2 ?C 30,0 ?C 27 % 1010,0 hPa 0,0 l/m? 8,6 km/h (2 Bft) SW 216 ? 3 min 424 W/m? 7,2 ?C 17,7 km/h (3 Bft)
03.05.2026 16:54 28,0 ?C 27,2 ?C 30,2 ?C 26 % 1009,9 hPa 0,0 l/m? 8,0 km/h (2 Bft) S-SW 198 ? 3 min 411 W/m? 6,7 ?C 16,1 km/h (3 Bft)
03.05.2026 16:57 28,1 ?C 27,2 ?C 30,0 ?C 26 % 1009,9 hPa 0,0 l/m? 5,3 km/h (1 Bft) S 177 ? 3 min 402 W/m? 6,8 ?C 11,3 km/h (2 Bft)
03.05.2026 17:00 28,1 ?C 27,1 ?C 30,5 ?C 27 % 1009,8 hPa 0,0 l/m? 2,2 km/h (1 Bft) S-SO 164 ? 3 min 394 W/m? 7,3 ?C 6,4 km/h (2 Bft)
03.05.2026 17:03 28,2 ?C 26,9 ?C 30,8 ?C 27 % 1009,8 hPa 0,0 l/m? 6,3 km/h (2 Bft) SW 230 ? 3 min 393 W/m? 7,4 ?C 14,5 km/h (3 Bft)
03.05.2026 17:06 28,3 ?C 26,8 ?C 30,8 ?C 28 % 1009,8 hPa 0,0 l/m? 5,4 km/h (2 Bft) S-SW 198 ? 3 min 385 W/m? 8,0 ?C 12,9 km/h (3 Bft)
03.05.2026 17:09 28,3 ?C 26,5 ?C 30,8 ?C 26 % 1009,8 hPa 0,0 l/m? 9,7 km/h (2 Bft) W-SW 239 ? 3 min 364 W/m? 6,9 ?C 19,3 km/h (3 Bft)
03.05.2026 17:12 28,3 ?C 26,6 ?C 30,1 ?C 26 % 1009,7 hPa 0,0 l/m? 10,7 km/h (2 Bft) SW 222 ? 3 min 347 W/m? 6,9 ?C 19,3 km/h (3 Bft)
03.05.2026 17:15 28,3 ?C 26,3 ?C 30,2 ?C 26 % 1009,7 hPa 0,0 l/m? 6,4 km/h (2 Bft) W-SW 257 ? 3 min 319 W/m? 6,9 ?C 11,3 km/h (2 Bft)
03.05.2026 17:18 28,1 ?C 25,9 ?C 30,3 ?C 26 % 1009,7 hPa 0,0 l/m? 4,6 km/h (1 Bft) SW 216 ? 3 min 263 W/m? 6,8 ?C 9,7 km/h (2 Bft)
03.05.2026 17:21 28,0 ?C 26,2 ?C 29,6 ?C 26 % 1009,7 hPa 0,0 l/m? 9,1 km/h (2 Bft) S 177 ? 3 min 261 W/m? 6,7 ?C 16,1 km/h (3 Bft)
03.05.2026 17:24 27,8 ?C 26,4 ?C 29,7 ?C 27 % 1009,7 hPa 0,0 l/m? 5,9 km/h (2 Bft) SW 218 ? 3 min 316 W/m? 7,1 ?C 14,5 km/h (3 Bft)
03.05.2026 17:27 27,9 ?C 26,3 ?C 29,9 ?C 27 % 1009,6 hPa 0,0 l/m? 7,5 km/h (2 Bft) SW 214 ? 3 min 326 W/m? 7,2 ?C 14,5 km/h (3 Bft)
03.05.2026 17:30 27,9 ?C 26,0 ?C 29,9 ?C 26 % 1009,6 hPa 0,0 l/m? 7,5 km/h (2 Bft) SW 226 ? 3 min 316 W/m? 6,6 ?C 12,9 km/h (3 Bft)
03.05.2026 17:33 27,9 ?C 25,7 ?C 30,0 ?C 27 % 1009,6 hPa 0,0 l/m? 5,9 km/h (2 Bft) SW 232 ? 3 min 276 W/m? 7,2 ?C 12,9 km/h (3 Bft)
03.05.2026 17:36 27,9 ?C 25,6 ?C 30,3 ?C 28 % 1009,5 hPa 0,0 l/m? 6,9 km/h (2 Bft) W-SW 243 ? 3 min 285 W/m? 7,7 ?C 19,3 km/h (3 Bft)
03.05.2026 17:39 28,0 ?C 25,6 ?C 30,0 ?C 27 % 1009,5 hPa 0,0 l/m? 6,7 km/h (2 Bft) W-SW 237 ? 3 min 291 W/m? 7,2 ?C 9,7 km/h (2 Bft)
03.05.2026 17:42 27,9 ?C 25,4 ?C 29,9 ?C 27 % 1009,5 hPa 0,0 l/m? 10,5 km/h (2 Bft) SW 223 ? 3 min 289 W/m? 7,2 ?C 17,7 km/h (3 Bft)
03.05.2026 17:45 27,8 ?C 25,4 ?C 29,6 ?C 27 % 1009,5 hPa 0,0 l/m? 6,8 km/h (2 Bft) SW 228 ? 3 min 272 W/m? 7,1 ?C 14,5 km/h (3 Bft)
03.05.2026 17:48 27,8 ?C 25,5 ?C 30,0 ?C 28 % 1009,6 hPa 0,0 l/m? 3,8 km/h (1 Bft) S-SW 206 ? 3 min 229 W/m? 7,6 ?C 8,0 km/h (2 Bft)
03.05.2026 17:51 27,7 ?C 25,6 ?C 30,0 ?C 28 % 1009,5 hPa 0,0 l/m? 3,3 km/h (1 Bft) SW 218 ? 3 min 263 W/m? 7,5 ?C 4,8 km/h (1 Bft)
03.05.2026 17:54 27,8 ?C 25,4 ?C 30,3 ?C 29 % 1009,5 hPa 0,0 l/m? 4,1 km/h (1 Bft) SW 229 ? 3 min 265 W/m? 8,1 ?C 16,1 km/h (3 Bft)
03.05.2026 17:57 27,9 ?C 25,5 ?C 30,1 ?C 28 % 1009,5 hPa 0,0 l/m? 4,7 km/h (1 Bft) SW 228 ? 3 min 263 W/m? 7,7 ?C 11,3 km/h (2 Bft)
03.05.2026 18:00 27,7 ?C 25,7 ?C 30,5 ?C 27 % 1009,4 hPa 0,0 l/m? 1,8 km/h (1 Bft) SW 217 ? 3 min 265 W/m? 7,0 ?C 4,8 km/h (1 Bft)
03.05.2026 18:03 27,8 ?C 25,7 ?C 31,0 ?C 28 % 1009,4 hPa 0,0 l/m? 1,0 km/h (0 Bft) SW 216 ? 3 min 253 W/m? 7,6 ?C 3,2 km/h (1 Bft)
03.05.2026 18:06 27,8 ?C 25,3 ?C 31,4 ?C 28 % 1009,4 hPa 0,0 l/m? 2,2 km/h (1 Bft) SW 231 ? 3 min 236 W/m? 7,6 ?C 3,2 km/h (1 Bft)
03.05.2026 18:09 27,7 ?C 25,1 ?C 31,2 ?C 29 % 1009,4 hPa 0,0 l/m? 2,4 km/h (1 Bft) W-SW 248 ? 3 min 216 W/m? 8,0 ?C 4,8 km/h (1 Bft)
03.05.2026 18:12 27,7 ?C 25,0 ?C 31,2 ?C 29 % 1009,4 hPa 0,0 l/m? 1,9 km/h (1 Bft) W 277 ? 3 min 202 W/m? 8,0 ?C 4,8 km/h (1 Bft)
03.05.2026 18:15 27,6 ?C 24,9 ?C 31,0 ?C 31 % 1009,4 hPa 0,0 l/m? 3,0 km/h (1 Bft) W 272 ? 3 min 221 W/m? 8,9 ?C 6,4 km/h (2 Bft)
03.05.2026 18:18 27,6 ?C 25,0 ?C 30,6 ?C 30 % 1009,3 hPa 0,0 l/m? 5,8 km/h (2 Bft) W-SW 242 ? 3 min 230 W/m? 8,4 ?C 14,5 km/h (3 Bft)
03.05.2026 18:21 27,7 ?C 25,3 ?C 29,8 ?C 29 % 1009,4 hPa 0,0 l/m? 7,6 km/h (2 Bft) SW 215 ? 3 min 175 W/m? 8,0 ?C 14,5 km/h (3 Bft)
03.05.2026 18:24 27,6 ?C 25,1 ?C 29,8 ?C 28 % 1009,3 hPa 0,0 l/m? 4,0 km/h (1 Bft) SW 225 ? 3 min 182 W/m? 7,4 ?C 6,4 km/h (2 Bft)
03.05.2026 18:27 27,5 ?C 24,9 ?C 29,6 ?C 29 % 1009,3 hPa 0,0 l/m? 3,9 km/h (1 Bft) S-SW 192 ? 0 min 114 W/m? 7,9 ?C 6,4 km/h (2 Bft)
03.05.2026 18:30 27,3 ?C 25,1 ?C 28,8 ?C 28 % 1009,3 hPa 0,0 l/m? 5,2 km/h (1 Bft) S 184 ? 0 min 116 W/m? 7,2 ?C 9,7 km/h (2 Bft)
03.05.2026 18:33 27,1 ?C 24,8 ?C 28,5 ?C 29 % 1009,3 hPa 0,0 l/m? 6,1 km/h (2 Bft) S-SW 198 ? 0 min 103 W/m? 7,5 ?C 9,7 km/h (2 Bft)
03.05.2026 18:36 27,0 ?C 24,8 ?C 28,3 ?C 29 % 1009,3 hPa 0,0 l/m? 5,6 km/h (2 Bft) S-SW 192 ? 0 min 124 W/m? 7,4 ?C 11,3 km/h (2 Bft)
03.05.2026 18:39 26,9 ?C 24,6 ?C 28,6 ?C 29 % 1009,2 hPa 0,0 l/m? 3,3 km/h (1 Bft) SW 216 ? 0 min 134 W/m? 7,3 ?C 6,4 km/h (2 Bft)
03.05.2026 18:42 27,0 ?C 24,6 ?C 28,8 ?C 29 % 1009,3 hPa 0,0 l/m? 2,8 km/h (1 Bft) SW 214 ? 3 min 150 W/m? 7,4 ?C 4,8 km/h (1 Bft)
03.05.2026 18:45 27,0 ?C 24,5 ?C 29,2 ?C 30 % 1009,2 hPa 0,0 l/m? 1,6 km/h (1 Bft) SW 231 ? 3 min 168 W/m? 7,9 ?C 4,8 km/h (1 Bft)
03.05.2026 18:48 27,1 ?C 24,1 ?C 29,5 ?C 31 % 1009,2 hPa 0,0 l/m? 1,3 km/h (1 Bft) SW 231 ? 3 min 160 W/m? 8,5 ?C 3,2 km/h (1 Bft)
03.05.2026 18:51 27,0 ?C 24,0 ?C 29,1 ?C 31 % 1009,2 hPa 0,0 l/m? 3,8 km/h (1 Bft) S 187 ? 3 min 150 W/m? 8,4 ?C 8,0 km/h (2 Bft)
03.05.2026 18:54 26,8 ?C 22,9 ?C 28,8 ?C 33 % 1009,2 hPa 0,0 l/m? 2,3 km/h (1 Bft) W-SW 242 ? 3 min 129 W/m? 9,2 ?C 4,8 km/h (1 Bft)
03.05.2026 18:57 26,6 ?C 22,0 ?C 28,7 ?C 32 % 1009,1 hPa 0,0 l/m? 3,5 km/h (1 Bft) W 259 ? 0 min 102 W/m? 8,5 ?C 6,4 km/h (2 Bft)
03.05.2026 19:00 26,4 ?C 21,6 ?C 28,2 ?C 32 % 1009,2 hPa 0,0 l/m? 7,7 km/h (2 Bft) W 265 ? 0 min 87 W/m? 8,4 ?C 16,1 km/h (3 Bft)
03.05.2026 19:03 26,4 ?C 21,4 ?C 27,8 ?C 32 % 1009,2 hPa 0,0 l/m? 5,2 km/h (1 Bft) W 267 ? 0 min 94 W/m? 8,4 ?C 8,0 km/h (2 Bft)
03.05.2026 19:06 26,3 ?C 21,3 ?C 27,6 ?C 32 % 1009,2 hPa 0,0 l/m? 6,5 km/h (2 Bft) W 269 ? 0 min 77 W/m? 8,3 ?C 11,3 km/h (2 Bft)
03.05.2026 19:09 26,2 ?C 21,0 ?C 27,4 ?C 32 % 1009,1 hPa 0,0 l/m? 4,1 km/h (1 Bft) W 262 ? 0 min 68 W/m? 8,2 ?C 6,4 km/h (2 Bft)
03.05.2026 19:12 26,1 ?C 20,8 ?C 27,4 ?C 32 % 1009,2 hPa 0,0 l/m? 2,5 km/h (1 Bft) W 265 ? 0 min 71 W/m? 8,1 ?C 4,8 km/h (1 Bft)
03.05.2026 19:15 26,0 ?C 20,7 ?C 27,5 ?C 32 % 1009,2 hPa 0,0 l/m? 2,2 km/h (1 Bft) W-SW 248 ? 0 min 90 W/m? 8,0 ?C 4,8 km/h (1 Bft)
03.05.2026 19:18 26,0 ?C 20,7 ?C 27,5 ?C 34 % 1009,2 hPa 0,0 l/m? 2,2 km/h (1 Bft) W-SW 251 ? 0 min 87 W/m? 8,9 ?C 4,8 km/h (1 Bft)
03.05.2026 19:21 26,0 ?C 20,7 ?C 27,3 ?C 32 % 1009,2 hPa 0,0 l/m? 3,9 km/h (1 Bft) W-SW 249 ? 0 min 87 W/m? 8,0 ?C 6,4 km/h (2 Bft)
03.05.2026 19:24 25,9 ?C 20,5 ?C 27,2 ?C 33 % 1009,2 hPa 0,0 l/m? 2,9 km/h (1 Bft) W-SW 238 ? 3 min 87 W/m? 8,4 ?C 4,8 km/h (1 Bft)
03.05.2026 19:27 25,6 ?C 20,5 ?C 27,2 ?C 36 % 1009,2 hPa 0,0 l/m? 1,6 km/h (1 Bft) SW 227 ? 3 min 83 W/m? 9,4 ?C 3,2 km/h (1 Bft)
03.05.2026 19:30 25,5 ?C 20,5 ?C 27,0 ?C 35 % 1009,2 hPa 0,0 l/m? 2,1 km/h (1 Bft) SW 227 ? 3 min 89 W/m? 8,9 ?C 3,2 km/h (1 Bft)
03.05.2026 19:33 25,7 ?C 20,4 ?C 27,0 ?C 34 % 1009,2 hPa 0,0 l/m? 1,9 km/h (1 Bft) SW 227 ? 3 min 85 W/m? 8,6 ?C 3,2 km/h (1 Bft)
03.05.2026 19:36 25,7 ?C 20,3 ?C 26,9 ?C 34 % 1009,2 hPa 0,0 l/m? 2,9 km/h (1 Bft) SW 227 ? 3 min 73 W/m? 8,6 ?C 4,8 km/h (1 Bft)
03.05.2026 19:39 25,5 ?C 20,2 ?C 26,7 ?C 35 % 1009,2 hPa 0,0 l/m? 2,5 km/h (1 Bft) SW 227 ? 0 min 60 W/m? 8,9 ?C 3,2 km/h (1 Bft)
03.05.2026 19:42 25,2 ?C 20,0 ?C 26,5 ?C 37 % 1009,2 hPa 0,0 l/m? 2,5 km/h (1 Bft) SW 227 ? 3 min 60 W/m? 9,5 ?C 3,2 km/h (1 Bft)
03.05.2026 19:45 24,6 ?C 19,9 ?C 26,3 ?C 41 % 1009,2 hPa 0,0 l/m? 1,2 km/h (1 Bft) SW 227 ? 3 min 61 W/m? 10,5 ?C 3,2 km/h (1 Bft)
03.05.2026 19:48 24,1 ?C 19,8 ?C 26,2 ?C 43 % 1009,3 hPa 0,0 l/m? 0,7 km/h (0 Bft) SW 227 ? 3 min 54 W/m? 10,7 ?C 1,6 km/h (1 Bft)
03.05.2026 19:51 23,8 ?C 19,6 ?C 26,0 ?C 45 % 1009,3 hPa 0,0 l/m? 0,5 km/h (0 Bft) SW 227 ? 3 min 47 W/m? 11,1 ?C 1,6 km/h (1 Bft)
03.05.2026 19:54 23,4 ?C 19,5 ?C 25,8 ?C 45 % 1009,3 hPa 0,0 l/m? 0,0 km/h (0 Bft) N 0 ? 0 min 39 W/m? 10,8 ?C 0,0 km/h (0 Bft)
03.05.2026 19:57 23,2 ?C 19,4 ?C 25,5 ?C 46 % 1009,3 hPa 0,0 l/m? 0,1 km/h (0 Bft) SW 227 ? 0 min 31 W/m? 10,9 ?C 3,2 km/h (1 Bft)
03.05.2026 20:00 22,9 ?C 19,3 ?C 25,0 ?C 45 % 1009,3 hPa 0,0 l/m? 2,0 km/h (1 Bft) SW 227 ? 0 min 28 W/m? 10,3 ?C 3,2 km/h (1 Bft)
03.05.2026 20:03 22,9 ?C 19,2 ?C 24,7 ?C 42 % 1009,3 hPa 0,0 l/m? 1,6 km/h (1 Bft) SW 226 ? 0 min 26 W/m? 9,3 ?C 3,2 km/h (1 Bft)
03.05.2026 20:06 22,8 ?C 19,0 ?C 24,5 ?C 44 % 1009,4 hPa 0,0 l/m? 1,5 km/h (1 Bft) SW 225 ? 0 min 21 W/m? 9,9 ?C 3,2 km/h (1 Bft)
03.05.2026 20:09 22,5 ?C 19,0 ?C 24,3 ?C 45 % 1009,4 hPa 0,0 l/m? 3,7 km/h (1 Bft) S 182 ? 0 min 18 W/m? 10,0 ?C 8,0 km/h (2 Bft)
03.05.2026 20:12 22,5 ?C 18,9 ?C 24,2 ?C 43 % 1009,4 hPa 0,0 l/m? 4,4 km/h (1 Bft) SO 144 ? 0 min 15 W/m? 9,3 ?C 6,4 km/h (2 Bft)
03.05.2026 20:15 22,7 ?C 18,7 ?C 23,9 ?C 43 % 1009,4 hPa 0,0 l/m? 2,9 km/h (1 Bft) SO 144 ? 0 min 13 W/m? 9,5 ?C 4,8 km/h (1 Bft)
03.05.2026 20:18 22,5 ?C 18,6 ?C 23,6 ?C 44 % 1009,4 hPa 0,0 l/m? 1,2 km/h (1 Bft) SO 144 ? 3 min 10 W/m? 9,6 ?C 3,2 km/h (1 Bft)
03.05.2026 20:21 22,3 ?C 18,4 ?C 23,5 ?C 45 % 1009,4 hPa 0,0 l/m? 2,5 km/h (1 Bft) S 175 ? 0 min 8 W/m? 9,8 ?C 4,8 km/h (1 Bft)
03.05.2026 20:24 22,1 ?C 18,3 ?C 23,3 ?C 46 % 1009,5 hPa 0,0 l/m? 2,2 km/h (1 Bft) S 177 ? 0 min 6 W/m? 9,9 ?C 4,8 km/h (1 Bft)
03.05.2026 20:27 21,8 ?C 18,1 ?C 22,9 ?C 45 % 1009,5 hPa 0,0 l/m? 1,6 km/h (1 Bft) S 175 ? 0 min 5 W/m? 9,3 ?C 3,2 km/h (1 Bft)
03.05.2026 20:30 21,6 ?C 17,9 ?C 22,8 ?C 47 % 1009,6 hPa 0,0 l/m? 2,2 km/h (1 Bft) S 175 ? 0 min 4 W/m? 9,8 ?C 3,2 km/h (1 Bft)
03.05.2026 20:33 21,4 ?C 17,7 ?C 22,5 ?C 49 % 1009,6 hPa 0,0 l/m? 1,5 km/h (1 Bft) S 175 ? 0 min 4 W/m? 10,2 ?C 3,2 km/h (1 Bft)
03.05.2026 20:36 21,0 ?C 17,6 ?C 22,3 ?C 49 % 1009,6 hPa 0,0 l/m? 1,3 km/h (1 Bft) S 175 ? 0 min 2 W/m? 9,9 ?C 3,2 km/h (1 Bft)
03.05.2026 20:39 20,6 ?C 17,4 ?C 22,0 ?C 51 % 1009,6 hPa 0,0 l/m? 0,1 km/h (0 Bft) S 175 ? 0 min 2 W/m? 10,1 ?C 1,6 km/h (1 Bft)
03.05.2026 20:42 20,2 ?C 17,2 ?C 21,9 ?C 53 % 1009,7 hPa 0,0 l/m? 0,3 km/h (0 Bft) S 175 ? 0 min 1 W/m? 10,3 ?C 1,6 km/h (1 Bft)
03.05.2026 20:45 19,8 ?C 17,0 ?C 21,5 ?C 54 % 1009,7 hPa 0,0 l/m? 0,0 km/h (0 Bft) N 0 ? 0 min 0 W/m? 10,2 ?C 0,0 km/h (0 Bft)
03.05.2026 20:48 19,5 ?C 16,9 ?C 21,2 ?C 56 % 1009,7 hPa 0,0 l/m? 0,0 km/h (0 Bft) N 0 ? 0 min 0 W/m? 10,5 ?C 0,0 km/h (0 Bft)
03.05.2026 20:51 19,2 ?C 16,7 ?C 21,0 ?C 55 % 1009,7 hPa 0,0 l/m? 0,0 km/h (0 Bft) N 0 ? 0 min 0 W/m? 9,9 ?C 0,0 km/h (0 Bft)
03.05.2026 20:54 19,1 ?C 16,6 ?C 21,0 ?C 56 % 1009,8 hPa 0,0 l/m? 0,0 km/h (0 Bft) N 0 ? 0 min 0 W/m? 10,1 ?C 0,0 km/h (0 Bft)
03.05.2026 20:57 19,0 ?C 16,5 ?C 20,6 ?C 56 % 1009,8 hPa 0,0 l/m? 0,0 km/h (0 Bft) N 0 ? 0 min 0 W/m? 10,0 ?C 0,0 km/h (0 Bft)
03.05.2026 21:00 18,9 ?C 16,4 ?C 20,4 ?C 56 % 1009,8 hPa 0,0 l/m? 0,1 km/h (0 Bft) S 175 ? 0 min 0 W/m? 9,9 ?C 1,6 km/h (1 Bft)
03.05.2026 21:03 18,7 ?C 16,3 ?C 20,7 ?C 57 % 1009,8 hPa 0,0 l/m? 0,7 km/h (0 Bft) S 175 ? 0 min 0 W/m? 10,0 ?C 1,6 km/h (1 Bft)
03.05.2026 21:06 18,5 ?C 16,2 ?C 21,0 ?C 58 % 1009,8 hPa 0,0 l/m? 1,6 km/h (1 Bft) S 175 ? 0 min 0 W/m? 10,1 ?C 3,2 km/h (1 Bft)
03.05.2026 21:09 18,3 ?C 16,1 ?C 20,8 ?C 59 % 1009,9 hPa 0,0 l/m? 1,8 km/h (1 Bft) S 175 ? 0 min 0 W/m? 10,1 ?C 3,2 km/h (1 Bft)
03.05.2026 21:12 18,1 ?C 16,0 ?C 20,8 ?C 59 % 1009,9 hPa 0,0 l/m? 1,9 km/h (1 Bft) S 175 ? 0 min 0 W/m? 10,0 ?C 3,2 km/h (1 Bft)
03.05.2026 21:15 18,0 ?C 15,8 ?C 21,0 ?C 59 % 1009,9 hPa 0,0 l/m? 2,4 km/h (1 Bft) S 175 ? 0 min 0 W/m? 9,9 ?C 4,8 km/h (1 Bft)
03.05.2026 21:18 17,9 ?C 15,7 ?C 20,9 ?C 59 % 1009,8 hPa 0,0 l/m? 2,3 km/h (1 Bft) S 175 ? 0 min 0 W/m? 9,8 ?C 4,8 km/h (1 Bft)
03.05.2026 21:21 17,8 ?C 15,7 ?C 20,8 ?C 60 % 1009,9 hPa 0,0 l/m? 2,7 km/h (1 Bft) S 176 ? 0 min 0 W/m? 9,9 ?C 4,8 km/h (1 Bft)
03.05.2026 21:24 17,7 ?C 15,6 ?C 20,8 ?C 60 % 1009,8 hPa 0,0 l/m? 2,6 km/h (1 Bft) S 175 ? 0 min 0 W/m? 9,8 ?C 4,8 km/h (1 Bft)
03.05.2026 21:27 17,7 ?C 15,6 ?C 20,7 ?C 60 % 1009,9 hPa 0,0 l/m? 2,0 km/h (1 Bft) S 175 ? 0 min 0 W/m? 9,8 ?C 4,8 km/h (1 Bft)
03.05.2026 21:30 17,7 ?C 15,5 ?C 20,6 ?C 59 % 1009,9 hPa 0,0 l/m? 2,8 km/h (1 Bft) S 175 ? 0 min 0 W/m? 9,6 ?C 4,8 km/h (1 Bft)
03.05.2026 21:33 17,8 ?C 15,5 ?C 20,6 ?C 60 % 1009,8 hPa 0,0 l/m? 3,0 km/h (1 Bft) S 174 ? 0 min 0 W/m? 9,9 ?C 4,8 km/h (1 Bft)
03.05.2026 21:36 17,8 ?C 15,4 ?C 20,6 ?C 60 % 1009,9 hPa 0,0 l/m? 2,7 km/h (1 Bft) S 171 ? 0 min 0 W/m? 9,9 ?C 4,8 km/h (1 Bft)
03.05.2026 21:39 17,7 ?C 15,4 ?C 20,6 ?C 61 % 1009,8 hPa 0,0 l/m? 3,1 km/h (1 Bft) S 171 ? 0 min 0 W/m? 10,1 ?C 4,8 km/h (1 Bft)
03.05.2026 21:42 17,7 ?C 15,3 ?C 20,5 ?C 59 % 1009,9 hPa 0,0 l/m? 3,0 km/h (1 Bft) S 170 ? 0 min 0 W/m? 9,6 ?C 4,8 km/h (1 Bft)
03.05.2026 21:45 18,1 ?C 15,3 ?C 20,5 ?C 58 % 1009,9 hPa 0,0 l/m? 3,2 km/h (1 Bft) S-SO 167 ? 0 min 0 W/m? 9,7 ?C 4,8 km/h (1 Bft)
03.05.2026 21:48 18,1 ?C 15,2 ?C 20,4 ?C 57 % 1009,9 hPa 0,0 l/m? 2,9 km/h (1 Bft) S-SO 167 ? 0 min 0 W/m? 9,4 ?C 4,8 km/h (1 Bft)
03.05.2026 21:51 18,2 ?C 15,2 ?C 20,2 ?C 56 % 1009,9 hPa 0,0 l/m? 2,6 km/h (1 Bft) S-SO 167 ? 0 min 0 W/m? 9,3 ?C 4,8 km/h (1 Bft)
03.05.2026 21:54 18,0 ?C 15,1 ?C 20,2 ?C 57 % 1009,9 hPa 0,0 l/m? 3,0 km/h (1 Bft) S-SO 167 ? 0 min 0 W/m? 9,4 ?C 4,8 km/h (1 Bft)
03.05.2026 21:57 17,9 ?C 15,0 ?C 20,2 ?C 55 % 1010,0 hPa 0,0 l/m? 4,0 km/h (1 Bft) S-SO 164 ? 0 min 0 W/m? 8,7 ?C 6,4 km/h (2 Bft)
03.05.2026 22:00 18,5 ?C 15,1 ?C 20,1 ?C 51 % 1009,9 hPa 0,0 l/m? 3,4 km/h (1 Bft) S-SO 166 ? 0 min 0 W/m? 8,2 ?C 6,4 km/h (2 Bft)
03.05.2026 22:03 18,6 ?C 15,0 ?C 20,0 ?C 54 % 1009,9 hPa 0,0 l/m? 2,8 km/h (1 Bft) S 175 ? 0 min 0 W/m? 9,1 ?C 4,8 km/h (1 Bft)
03.05.2026 22:06 18,4 ?C 15,0 ?C 19,9 ?C 52 % 1009,8 hPa 0,0 l/m? 2,8 km/h (1 Bft) S 175 ? 0 min 0 W/m? 8,4 ?C 4,8 km/h (1 Bft)
03.05.2026 22:09 18,3 ?C 15,0 ?C 19,9 ?C 52 % 1009,7 hPa 0,0 l/m? 3,3 km/h (1 Bft) S 175 ? 0 min 0 W/m? 8,3 ?C 6,4 km/h (2 Bft)
03.05.2026 22:12 18,4 ?C 15,0 ?C 19,9 ?C 52 % 1009,8 hPa 0,0 l/m? 2,8 km/h (1 Bft) S 175 ? 0 min 0 W/m? 8,4 ?C 4,8 km/h (1 Bft)
03.05.2026 22:15 18,6 ?C 15,1 ?C 20,0 ?C 48 % 1009,7 hPa 0,0 l/m? 4,2 km/h (1 Bft) S 176 ? 0 min 0 W/m? 7,4 ?C 8,0 km/h (2 Bft)
_ Min-Zeit 05:30 05:30 05:12 14:45 18:57 - 23:21 - - - - 05:30 23:21
Minimum _ 8,0 ?C 7,5 ?C 9,6 ?C 25 % 1009,1 hPa - 0,0 km/h (0 Bft) - - - - 3,8 ?C 0,0 km/h (0 Bft)
_ Max-Zeit 14:39 10:45 10:00 06:21 23:00 23:00 14:51 - - 07:15 12:33 19:51 14:12
Maximum _ 28,9 ?C 39,6 ?C 38,3 ?C 77 % 1016,0 hPa 0,0 l/m? 13,4 km/h
S-SO (3 Bft)
- - 3 min 728 W/m? 11,1 ?C 25,7 km/h
S (4 Bft)
Durchschnitt _ 18,3 ?C 19,6 ?C 22,3 ?C 52 % 1012,8 hPa #0,0 l/m? 3,9 km/h (1 Bft) S - #11:48 h 393 W/m? 6,8 ?C 7,6 km/h (2 Bft)